<?xml version="1.0" encoding="UTF-8" standalone="no" ?>
<gpx xmlns="http://www.topografix.com/GPX/1/1" xmlns:xsi="http://www.w3.org/2001/XMLSchema-instance" xsi:schemaLocation="http://www.topografix.com/GPX/1/1 http://www.topografix.com/GPX/1/1/gpx.xsd" version="1.1" creator="VisuGPX - https://www.visugpx.com">
  <metadata>
    <name>Etendard &gt; Allemond</name>
    <desc><![CDATA[Rive droite des lacs (Bramant et Blanc) > Glacier de St Sorlin > Col de la Cime de la Valette > Col de la Valette > Le Fond du Ferrand > Pont du Ferrand > Col de Sarenne > Alpe d'Huez > Col de Poutran > Crête de la Sure > Le Boulangeard > Allemond]]></desc>
  </metadata>
  <trk>
    <name><![CDATA[track]]></name>
    <trkseg>
      <trkpt lat="45.204" lon="6.1755">
        <ele>2367</ele>
        <time>2009-07-17T23:44:54Z</time>
      </trkpt>
      <trkpt lat="45.20436" lon="6.17567">
        <ele>2365</ele>
        <time>2009-07-17T23:44:54Z</time>
      </trkpt>
      <trkpt lat="45.20449" lon="6.1756">
        <ele>2367</ele>
        <time>2009-07-17T23:44:54Z</time>
      </trkpt>
      <trkpt lat="45.20445" lon="6.17586">
        <ele>2370</ele>
        <time>2009-07-17T23:44:54Z</time>
      </trkpt>
      <trkpt lat="45.20383" lon="6.17595">
        <ele>2375</ele>
        <time>2009-07-17T23:44:54Z</time>
      </trkpt>
      <trkpt lat="45.20441" lon="6.17627">
        <ele>2380</ele>
        <time>2009-07-17T23:44:54Z</time>
      </trkpt>
      <trkpt lat="45.20449" lon="6.17653">
        <ele>2383</ele>
        <time>2009-07-17T23:44:54Z</time>
      </trkpt>
      <trkpt lat="45.2037" lon="6.17693">
        <ele>2393</ele>
        <time>2009-07-17T23:44:54Z</time>
      </trkpt>
      <trkpt lat="45.2025" lon="6.17717">
        <ele>2389</ele>
        <time>2009-07-17T23:44:54Z</time>
      </trkpt>
      <trkpt lat="45.20209" lon="6.17745">
        <ele>2390</ele>
        <time>2009-07-17T23:44:54Z</time>
      </trkpt>
      <trkpt lat="45.20144" lon="6.17831">
        <ele>2393</ele>
        <time>2009-07-17T23:44:54Z</time>
      </trkpt>
      <trkpt lat="45.20084" lon="6.17839">
        <ele>2400</ele>
        <time>2009-07-17T23:44:54Z</time>
      </trkpt>
      <trkpt lat="45.19928" lon="6.17807">
        <ele>2412</ele>
        <time>2009-07-17T23:44:54Z</time>
      </trkpt>
      <trkpt lat="45.19885" lon="6.17786">
        <ele>2417</ele>
        <time>2009-07-17T23:44:54Z</time>
      </trkpt>
      <trkpt lat="45.19786" lon="6.17661">
        <ele>2418</ele>
        <time>2009-07-17T23:44:54Z</time>
      </trkpt>
      <trkpt lat="45.19722" lon="6.1758">
        <ele>2416</ele>
        <time>2009-07-17T23:44:54Z</time>
      </trkpt>
      <trkpt lat="45.19632" lon="6.17524">
        <ele>2432</ele>
        <time>2009-07-17T23:44:54Z</time>
      </trkpt>
      <trkpt lat="45.19618" lon="6.17527">
        <ele>2480</ele>
        <time>2009-07-17T23:44:54Z</time>
      </trkpt>
      <trkpt lat="45.19559" lon="6.17656">
        <ele>2503</ele>
        <time>2009-07-17T23:44:54Z</time>
      </trkpt>
      <trkpt lat="45.19517" lon="6.17758">
        <ele>2484</ele>
        <time>2009-07-17T23:44:54Z</time>
      </trkpt>
      <trkpt lat="45.19423" lon="6.17739">
        <ele>2479</ele>
        <time>2009-07-17T23:44:54Z</time>
      </trkpt>
      <trkpt lat="45.19409" lon="6.1771">
        <ele>2480</ele>
        <time>2009-07-17T23:44:54Z</time>
      </trkpt>
      <trkpt lat="45.19239" lon="6.17733">
        <ele>2522</ele>
        <time>2009-07-17T23:44:54Z</time>
      </trkpt>
      <trkpt lat="45.19146" lon="6.17761">
        <ele>2520</ele>
        <time>2009-07-17T23:44:54Z</time>
      </trkpt>
      <trkpt lat="45.19083" lon="6.17757">
        <ele>2519</ele>
        <time>2009-07-17T23:44:54Z</time>
      </trkpt>
      <trkpt lat="45.19007" lon="6.1766">
        <ele>2513</ele>
        <time>2009-07-17T23:44:54Z</time>
      </trkpt>
      <trkpt lat="45.1892" lon="6.17523">
        <ele>2508</ele>
        <time>2009-07-17T23:44:54Z</time>
      </trkpt>
      <trkpt lat="45.18887" lon="6.17422">
        <ele>2506</ele>
        <time>2009-07-17T23:44:54Z</time>
      </trkpt>
      <trkpt lat="45.18869" lon="6.17347">
        <ele>2507</ele>
        <time>2009-07-17T23:44:54Z</time>
      </trkpt>
      <trkpt lat="45.18793" lon="6.17285">
        <ele>2511</ele>
        <time>2009-07-17T23:44:54Z</time>
      </trkpt>
      <trkpt lat="45.1864" lon="6.17328">
        <ele>2511</ele>
        <time>2009-07-17T23:44:54Z</time>
      </trkpt>
      <trkpt lat="45.18472" lon="6.17368">
        <ele>2516</ele>
        <time>2009-07-17T23:44:54Z</time>
      </trkpt>
      <trkpt lat="45.18237" lon="6.17224">
        <ele>2538</ele>
        <time>2009-07-17T23:44:54Z</time>
      </trkpt>
      <trkpt lat="45.18107" lon="6.17132">
        <ele>2553</ele>
        <time>2009-07-17T23:44:54Z</time>
      </trkpt>
      <trkpt lat="45.18009" lon="6.1711">
        <ele>2586</ele>
        <time>2009-07-17T23:44:54Z</time>
      </trkpt>
      <trkpt lat="45.17751" lon="6.16942">
        <ele>2629</ele>
        <time>2009-07-17T23:44:54Z</time>
      </trkpt>
      <trkpt lat="45.17688" lon="6.16944">
        <ele>2647</ele>
        <time>2009-07-17T23:44:54Z</time>
      </trkpt>
      <trkpt lat="45.17531" lon="6.16854">
        <ele>2669</ele>
        <time>2009-07-17T23:44:54Z</time>
      </trkpt>
      <trkpt lat="45.17402" lon="6.1675">
        <ele>2685</ele>
        <time>2009-07-17T23:44:54Z</time>
      </trkpt>
      <trkpt lat="45.17368" lon="6.16696">
        <ele>2684</ele>
        <time>2009-07-17T23:44:54Z</time>
      </trkpt>
      <trkpt lat="45.17311" lon="6.16696">
        <ele>2689</ele>
        <time>2009-07-17T23:44:54Z</time>
      </trkpt>
      <trkpt lat="45.17262" lon="6.16571">
        <ele>2694</ele>
        <time>2009-07-17T23:44:54Z</time>
      </trkpt>
      <trkpt lat="45.17228" lon="6.16575">
        <ele>2696</ele>
        <time>2009-07-17T23:44:54Z</time>
      </trkpt>
      <trkpt lat="45.17148" lon="6.16738">
        <ele>2697</ele>
        <time>2009-07-17T23:44:54Z</time>
      </trkpt>
      <trkpt lat="45.17014" lon="6.16892">
        <ele>2678</ele>
        <time>2009-07-17T23:44:54Z</time>
      </trkpt>
      <trkpt lat="45.16801" lon="6.17065">
        <ele>2685</ele>
        <time>2009-07-17T23:44:54Z</time>
      </trkpt>
      <trkpt lat="45.16677" lon="6.17193">
        <ele>2697</ele>
        <time>2009-07-17T23:44:54Z</time>
      </trkpt>
      <trkpt lat="45.16619" lon="6.1724">
        <ele>2705</ele>
        <time>2009-07-17T23:44:54Z</time>
      </trkpt>
      <trkpt lat="45.16594" lon="6.17334">
        <ele>2711</ele>
        <time>2009-07-17T23:44:54Z</time>
      </trkpt>
      <trkpt lat="45.166" lon="6.1748">
        <ele>2710</ele>
        <time>2009-07-17T23:44:54Z</time>
      </trkpt>
      <trkpt lat="45.16663" lon="6.17539">
        <ele>2701</ele>
        <time>2009-07-17T23:44:54Z</time>
      </trkpt>
      <trkpt lat="45.16691" lon="6.1763">
        <ele>2698</ele>
        <time>2009-07-17T23:44:54Z</time>
      </trkpt>
      <trkpt lat="45.16777" lon="6.17687">
        <ele>2684</ele>
        <time>2009-07-17T23:44:54Z</time>
      </trkpt>
      <trkpt lat="45.16831" lon="6.17824">
        <ele>2675</ele>
        <time>2009-07-17T23:44:54Z</time>
      </trkpt>
      <trkpt lat="45.16924" lon="6.17936">
        <ele>2658</ele>
        <time>2009-07-17T23:44:54Z</time>
      </trkpt>
      <trkpt lat="45.16931" lon="6.17981">
        <ele>2659</ele>
        <time>2009-07-17T23:44:54Z</time>
      </trkpt>
      <trkpt lat="45.16999" lon="6.18033">
        <ele>2641</ele>
        <time>2009-07-17T23:44:54Z</time>
      </trkpt>
      <trkpt lat="45.17017" lon="6.18101">
        <ele>2637</ele>
        <time>2009-07-17T23:44:54Z</time>
      </trkpt>
      <trkpt lat="45.16971" lon="6.1806">
        <ele>2649</ele>
        <time>2009-07-17T23:44:54Z</time>
      </trkpt>
      <trkpt lat="45.16994" lon="6.18125">
        <ele>2643</ele>
        <time>2009-07-17T23:44:54Z</time>
      </trkpt>
      <trkpt lat="45.16935" lon="6.18083">
        <ele>2662</ele>
        <time>2009-07-17T23:44:54Z</time>
      </trkpt>
      <trkpt lat="45.16956" lon="6.1818">
        <ele>2663</ele>
        <time>2009-07-17T23:44:54Z</time>
      </trkpt>
      <trkpt lat="45.16818" lon="6.18129">
        <ele>2712</ele>
        <time>2009-07-17T23:44:54Z</time>
      </trkpt>
      <trkpt lat="45.16782" lon="6.18082">
        <ele>2723</ele>
        <time>2009-07-17T23:44:54Z</time>
      </trkpt>
      <trkpt lat="45.16778" lon="6.18123">
        <ele>2728</ele>
        <time>2009-07-17T23:44:54Z</time>
      </trkpt>
      <trkpt lat="45.1668" lon="6.18037">
        <ele>2753</ele>
        <time>2009-07-17T23:44:54Z</time>
      </trkpt>
      <trkpt lat="45.16678" lon="6.18071">
        <ele>2758</ele>
        <time>2009-07-17T23:44:54Z</time>
      </trkpt>
      <trkpt lat="45.16595" lon="6.18005">
        <ele>2784</ele>
        <time>2009-07-17T23:44:54Z</time>
      </trkpt>
      <trkpt lat="45.16594" lon="6.18043">
        <ele>2791</ele>
        <time>2009-07-17T23:44:54Z</time>
      </trkpt>
      <trkpt lat="45.16509" lon="6.17955">
        <ele>2813</ele>
        <time>2009-07-17T23:44:54Z</time>
      </trkpt>
      <trkpt lat="45.16503" lon="6.17993">
        <ele>2821</ele>
        <time>2009-07-17T23:44:54Z</time>
      </trkpt>
      <trkpt lat="45.16414" lon="6.17913">
        <ele>2832</ele>
        <time>2009-07-17T23:44:54Z</time>
      </trkpt>
      <trkpt lat="45.16372" lon="6.17945">
        <ele>2828</ele>
        <time>2009-07-17T23:44:54Z</time>
      </trkpt>
      <trkpt lat="45.1639" lon="6.18067">
        <ele>2818</ele>
        <time>2009-07-17T23:44:54Z</time>
      </trkpt>
      <trkpt lat="45.16431" lon="6.18204">
        <ele>2768</ele>
        <time>2009-07-17T23:44:54Z</time>
      </trkpt>
      <trkpt lat="45.16472" lon="6.18255">
        <ele>2756</ele>
        <time>2009-07-17T23:44:54Z</time>
      </trkpt>
      <trkpt lat="45.16506" lon="6.18362">
        <ele>2719</ele>
        <time>2009-07-17T23:44:54Z</time>
      </trkpt>
      <trkpt lat="45.16474" lon="6.18519">
        <ele>2676</ele>
        <time>2009-07-17T23:44:54Z</time>
      </trkpt>
      <trkpt lat="45.16429" lon="6.1864">
        <ele>2656</ele>
        <time>2009-07-17T23:44:54Z</time>
      </trkpt>
      <trkpt lat="45.16413" lon="6.18766">
        <ele>2640</ele>
        <time>2009-07-17T23:44:54Z</time>
      </trkpt>
      <trkpt lat="45.16394" lon="6.1894">
        <ele>2618</ele>
        <time>2009-07-17T23:44:54Z</time>
      </trkpt>
      <trkpt lat="45.16308" lon="6.19141">
        <ele>2606</ele>
        <time>2009-07-17T23:44:54Z</time>
      </trkpt>
      <trkpt lat="45.16215" lon="6.19284">
        <ele>2577</ele>
        <time>2009-07-17T23:44:54Z</time>
      </trkpt>
      <trkpt lat="45.16215" lon="6.19281">
        <ele>2577</ele>
        <time>2009-07-17T23:44:54Z</time>
      </trkpt>
      <trkpt lat="45.16192" lon="6.19296">
        <ele>2578</ele>
        <time>2009-07-14T11:07:17Z</time>
      </trkpt>
      <trkpt lat="45.16153" lon="6.19313">
        <ele>2566</ele>
        <time>2009-07-14T11:07:36Z</time>
      </trkpt>
      <trkpt lat="45.1604" lon="6.19502">
        <ele>2527</ele>
        <time>2009-07-14T11:08:55Z</time>
      </trkpt>
      <trkpt lat="45.16003" lon="6.19515">
        <ele>2515</ele>
        <time>2009-07-14T11:09:09Z</time>
      </trkpt>
      <trkpt lat="45.15958" lon="6.19565">
        <ele>2500</ele>
        <time>2009-07-14T11:09:25Z</time>
      </trkpt>
      <trkpt lat="45.15947" lon="6.19668">
        <ele>2497</ele>
        <time>2009-07-14T11:10:49Z</time>
      </trkpt>
      <trkpt lat="45.15949" lon="6.19777">
        <ele>2486</ele>
        <time>2009-07-14T11:11:12Z</time>
      </trkpt>
      <trkpt lat="45.15947" lon="6.19826">
        <ele>2479</ele>
        <time>2009-07-14T11:11:25Z</time>
      </trkpt>
      <trkpt lat="45.15827" lon="6.20049">
        <ele>2406</ele>
        <time>2009-07-14T11:13:22Z</time>
      </trkpt>
      <trkpt lat="45.15821" lon="6.20062">
        <ele>2403</ele>
        <time>2009-07-14T11:13:28Z</time>
      </trkpt>
      <trkpt lat="45.15838" lon="6.20105">
        <ele>2397</ele>
        <time>2009-07-14T11:14:18Z</time>
      </trkpt>
      <trkpt lat="45.15855" lon="6.2021">
        <ele>2385</ele>
        <time>2009-07-14T11:14:43Z</time>
      </trkpt>
      <trkpt lat="45.1578" lon="6.20268">
        <ele>2361</ele>
        <time>2009-07-14T11:15:12Z</time>
      </trkpt>
      <trkpt lat="45.15696" lon="6.2029">
        <ele>2338</ele>
        <time>2009-07-14T11:15:34Z</time>
      </trkpt>
      <trkpt lat="45.15683" lon="6.20311">
        <ele>2335</ele>
        <time>2009-07-14T11:15:40Z</time>
      </trkpt>
      <trkpt lat="45.15656" lon="6.20298">
        <ele>2325</ele>
        <time>2009-07-14T11:15:52Z</time>
      </trkpt>
      <trkpt lat="45.15658" lon="6.20258">
        <ele>2327</ele>
        <time>2009-07-14T11:16:49Z</time>
      </trkpt>
      <trkpt lat="45.15615" lon="6.20165">
        <ele>2331</ele>
        <time>2009-07-14T11:18:17Z</time>
      </trkpt>
      <trkpt lat="45.156" lon="6.2011">
        <ele>2332</ele>
        <time>2009-07-14T11:18:58Z</time>
      </trkpt>
      <trkpt lat="45.15613" lon="6.20032">
        <ele>2332</ele>
        <time>2009-07-14T11:19:31Z</time>
      </trkpt>
      <trkpt lat="45.15608" lon="6.19974">
        <ele>2336</ele>
        <time>2009-07-14T11:22:11Z</time>
      </trkpt>
      <trkpt lat="45.15608" lon="6.19929">
        <ele>2339</ele>
        <time>2009-07-14T11:22:40Z</time>
      </trkpt>
      <trkpt lat="45.15593" lon="6.19884">
        <ele>2337</ele>
        <time>2009-07-14T11:23:10Z</time>
      </trkpt>
      <trkpt lat="45.1561" lon="6.19816">
        <ele>2332</ele>
        <time>2009-07-14T11:23:44Z</time>
      </trkpt>
      <trkpt lat="45.15593" lon="6.1974">
        <ele>2333</ele>
        <time>2009-07-14T11:25:35Z</time>
      </trkpt>
      <trkpt lat="45.15563" lon="6.19702">
        <ele>2334</ele>
        <time>2009-07-14T11:26:24Z</time>
      </trkpt>
      <trkpt lat="45.15548" lon="6.19676">
        <ele>2334</ele>
        <time>2009-07-14T11:27:18Z</time>
      </trkpt>
      <trkpt lat="45.15533" lon="6.19674">
        <ele>2336</ele>
        <time>2009-07-14T11:27:47Z</time>
      </trkpt>
      <trkpt lat="45.15492" lon="6.19653">
        <ele>2343</ele>
        <time>2009-07-14T11:29:11Z</time>
      </trkpt>
      <trkpt lat="45.15443" lon="6.19631">
        <ele>2354</ele>
        <time>2009-07-14T11:30:54Z</time>
      </trkpt>
      <trkpt lat="45.15389" lon="6.19629">
        <ele>2361</ele>
        <time>2009-07-14T11:32:17Z</time>
      </trkpt>
      <trkpt lat="45.15364" lon="6.19631">
        <ele>2364</ele>
        <time>2009-07-14T11:32:53Z</time>
      </trkpt>
      <trkpt lat="45.15319" lon="6.19622">
        <ele>2369</ele>
        <time>2009-07-14T11:34:13Z</time>
      </trkpt>
      <trkpt lat="45.15252" lon="6.19663">
        <ele>2380</ele>
        <time>2009-07-14T11:36:26Z</time>
      </trkpt>
      <trkpt lat="45.15192" lon="6.19695">
        <ele>2393</ele>
        <time>2009-07-14T11:38:18Z</time>
      </trkpt>
      <trkpt lat="45.15177" lon="6.197">
        <ele>2399</ele>
        <time>2009-07-14T11:38:48Z</time>
      </trkpt>
      <trkpt lat="45.15162" lon="6.19689">
        <ele>2408</ele>
        <time>2009-07-14T11:40:01Z</time>
      </trkpt>
      <trkpt lat="45.15149" lon="6.19678">
        <ele>2418</ele>
        <time>2009-07-14T11:43:41Z</time>
      </trkpt>
      <trkpt lat="45.15121" lon="6.19659">
        <ele>2428</ele>
        <time>2009-07-14T11:45:05Z</time>
      </trkpt>
      <trkpt lat="45.1511" lon="6.19655">
        <ele>2435</ele>
        <time>2009-07-14T11:45:41Z</time>
      </trkpt>
      <trkpt lat="45.15117" lon="6.19644">
        <ele>2441</ele>
        <time>2009-07-14T11:46:35Z</time>
      </trkpt>
      <trkpt lat="45.15106" lon="6.19635">
        <ele>2450</ele>
        <time>2009-07-14T11:47:24Z</time>
      </trkpt>
      <trkpt lat="45.15098" lon="6.19627">
        <ele>2455</ele>
        <time>2009-07-14T11:47:59Z</time>
      </trkpt>
      <trkpt lat="45.15123" lon="6.19599">
        <ele>2462</ele>
        <time>2009-07-14T11:48:59Z</time>
      </trkpt>
      <trkpt lat="45.15095" lon="6.1958">
        <ele>2473</ele>
        <time>2009-07-14T11:50:59Z</time>
      </trkpt>
      <trkpt lat="45.15048" lon="6.19558">
        <ele>2468</ele>
        <time>2009-07-14T11:51:25Z</time>
      </trkpt>
      <trkpt lat="45.15033" lon="6.19552">
        <ele>2466</ele>
        <time>2009-07-14T11:51:29Z</time>
      </trkpt>
      <trkpt lat="45.14975" lon="6.195">
        <ele>2461</ele>
        <time>2009-07-14T11:52:27Z</time>
      </trkpt>
      <trkpt lat="45.14924" lon="6.19479">
        <ele>2461</ele>
        <time>2009-07-14T11:52:58Z</time>
      </trkpt>
      <trkpt lat="45.14829" lon="6.19423">
        <ele>2457</ele>
        <time>2009-07-14T11:53:35Z</time>
      </trkpt>
      <trkpt lat="45.14759" lon="6.19391">
        <ele>2453</ele>
        <time>2009-07-14T11:53:54Z</time>
      </trkpt>
      <trkpt lat="45.14688" lon="6.19378">
        <ele>2449</ele>
        <time>2009-07-14T11:54:11Z</time>
      </trkpt>
      <trkpt lat="45.14606" lon="6.19371">
        <ele>2442</ele>
        <time>2009-07-14T11:54:30Z</time>
      </trkpt>
      <trkpt lat="45.14583" lon="6.19376">
        <ele>2442</ele>
        <time>2009-07-14T12:01:54Z</time>
      </trkpt>
      <trkpt lat="45.1457" lon="6.19374">
        <ele>2439</ele>
        <time>2009-07-14T12:01:57Z</time>
      </trkpt>
      <trkpt lat="45.14548" lon="6.19361">
        <ele>2436</ele>
        <time>2009-07-14T12:02:02Z</time>
      </trkpt>
      <trkpt lat="45.1452" lon="6.19322">
        <ele>2432</ele>
        <time>2009-07-14T12:02:08Z</time>
      </trkpt>
      <trkpt lat="45.14467" lon="6.19262">
        <ele>2422</ele>
        <time>2009-07-14T12:02:17Z</time>
      </trkpt>
      <trkpt lat="45.14435" lon="6.19217">
        <ele>2416</ele>
        <time>2009-07-14T12:02:23Z</time>
      </trkpt>
      <trkpt lat="45.1442" lon="6.19193">
        <ele>2414</ele>
        <time>2009-07-14T12:02:26Z</time>
      </trkpt>
      <trkpt lat="45.14392" lon="6.19127">
        <ele>2408</ele>
        <time>2009-07-14T12:02:35Z</time>
      </trkpt>
      <trkpt lat="45.14362" lon="6.19058">
        <ele>2397</ele>
        <time>2009-07-14T12:02:45Z</time>
      </trkpt>
      <trkpt lat="45.14329" lon="6.19024">
        <ele>2388</ele>
        <time>2009-07-14T12:02:53Z</time>
      </trkpt>
      <trkpt lat="45.14308" lon="6.19004">
        <ele>2382</ele>
        <time>2009-07-14T12:02:57Z</time>
      </trkpt>
      <trkpt lat="45.14231" lon="6.18968">
        <ele>2364</ele>
        <time>2009-07-14T12:03:14Z</time>
      </trkpt>
      <trkpt lat="45.14214" lon="6.18936">
        <ele>2360</ele>
        <time>2009-07-14T12:03:26Z</time>
      </trkpt>
      <trkpt lat="45.1419" lon="6.18899">
        <ele>2358</ele>
        <time>2009-07-14T12:03:35Z</time>
      </trkpt>
      <trkpt lat="45.14173" lon="6.18874">
        <ele>2357</ele>
        <time>2009-07-14T12:03:41Z</time>
      </trkpt>
      <trkpt lat="45.14177" lon="6.18867">
        <ele>2356</ele>
        <time>2009-07-14T12:03:47Z</time>
      </trkpt>
      <trkpt lat="45.14169" lon="6.18839">
        <ele>2353</ele>
        <time>2009-07-14T12:04:20Z</time>
      </trkpt>
      <trkpt lat="45.14153" lon="6.18818">
        <ele>2349</ele>
        <time>2009-07-14T12:04:24Z</time>
      </trkpt>
      <trkpt lat="45.14145" lon="6.18786">
        <ele>2346</ele>
        <time>2009-07-14T12:04:29Z</time>
      </trkpt>
      <trkpt lat="45.1416" lon="6.18764">
        <ele>2344</ele>
        <time>2009-07-14T12:04:35Z</time>
      </trkpt>
      <trkpt lat="45.14177" lon="6.18758">
        <ele>2340</ele>
        <time>2009-07-14T12:04:50Z</time>
      </trkpt>
      <trkpt lat="45.14149" lon="6.18732">
        <ele>2337</ele>
        <time>2009-07-14T12:05:13Z</time>
      </trkpt>
      <trkpt lat="45.14126" lon="6.18698">
        <ele>2346</ele>
        <time>2009-07-14T12:05:33Z</time>
      </trkpt>
      <trkpt lat="45.14108" lon="6.18689">
        <ele>2342</ele>
        <time>2009-07-14T12:05:41Z</time>
      </trkpt>
      <trkpt lat="45.14076" lon="6.1868">
        <ele>2335</ele>
        <time>2009-07-14T12:05:51Z</time>
      </trkpt>
      <trkpt lat="45.1402" lon="6.18657">
        <ele>2322</ele>
        <time>2009-07-14T12:06:07Z</time>
      </trkpt>
      <trkpt lat="45.14008" lon="6.18659">
        <ele>2320</ele>
        <time>2009-07-14T12:06:10Z</time>
      </trkpt>
      <trkpt lat="45.14005" lon="6.18638">
        <ele>2315</ele>
        <time>2009-07-14T12:06:15Z</time>
      </trkpt>
      <trkpt lat="45.14014" lon="6.18618">
        <ele>2311</ele>
        <time>2009-07-14T12:06:19Z</time>
      </trkpt>
      <trkpt lat="45.1401" lon="6.18558">
        <ele>2303</ele>
        <time>2009-07-14T12:06:28Z</time>
      </trkpt>
      <trkpt lat="45.14016" lon="6.18524">
        <ele>2297</ele>
        <time>2009-07-14T12:06:35Z</time>
      </trkpt>
      <trkpt lat="45.14042" lon="6.18436">
        <ele>2282</ele>
        <time>2009-07-14T12:06:54Z</time>
      </trkpt>
      <trkpt lat="45.14061" lon="6.18391">
        <ele>2272</ele>
        <time>2009-07-14T12:07:04Z</time>
      </trkpt>
      <trkpt lat="45.14076" lon="6.18378">
        <ele>2267</ele>
        <time>2009-07-14T12:07:10Z</time>
      </trkpt>
      <trkpt lat="45.14091" lon="6.18337">
        <ele>2262</ele>
        <time>2009-07-14T12:07:20Z</time>
      </trkpt>
      <trkpt lat="45.14115" lon="6.18275">
        <ele>2258</ele>
        <time>2009-07-14T12:07:32Z</time>
      </trkpt>
      <trkpt lat="45.14111" lon="6.1826">
        <ele>2255</ele>
        <time>2009-07-14T12:07:38Z</time>
      </trkpt>
      <trkpt lat="45.14115" lon="6.18234">
        <ele>2249</ele>
        <time>2009-07-14T12:07:44Z</time>
      </trkpt>
      <trkpt lat="45.14117" lon="6.18206">
        <ele>2241</ele>
        <time>2009-07-14T12:07:50Z</time>
      </trkpt>
      <trkpt lat="45.14117" lon="6.18196">
        <ele>2240</ele>
        <time>2009-07-14T12:07:52Z</time>
      </trkpt>
      <trkpt lat="45.14111" lon="6.18185">
        <ele>2234</ele>
        <time>2009-07-14T12:08:00Z</time>
      </trkpt>
      <trkpt lat="45.14102" lon="6.18181">
        <ele>2231</ele>
        <time>2009-07-14T12:08:04Z</time>
      </trkpt>
      <trkpt lat="45.14076" lon="6.18193">
        <ele>2223</ele>
        <time>2009-07-14T12:08:15Z</time>
      </trkpt>
      <trkpt lat="45.14055" lon="6.18198">
        <ele>2215</ele>
        <time>2009-07-14T12:08:23Z</time>
      </trkpt>
      <trkpt lat="45.14038" lon="6.18215">
        <ele>2213</ele>
        <time>2009-07-14T12:08:29Z</time>
      </trkpt>
      <trkpt lat="45.1401" lon="6.18217">
        <ele>2203</ele>
        <time>2009-07-14T12:08:47Z</time>
      </trkpt>
      <trkpt lat="45.14001" lon="6.18223">
        <ele>2202</ele>
        <time>2009-07-14T12:08:49Z</time>
      </trkpt>
      <trkpt lat="45.13995" lon="6.18204">
        <ele>2198</ele>
        <time>2009-07-14T12:08:55Z</time>
      </trkpt>
      <trkpt lat="45.13986" lon="6.18204">
        <ele>2196</ele>
        <time>2009-07-14T12:08:58Z</time>
      </trkpt>
      <trkpt lat="45.13978" lon="6.18213">
        <ele>2193</ele>
        <time>2009-07-14T12:09:01Z</time>
      </trkpt>
      <trkpt lat="45.13969" lon="6.18196">
        <ele>2187</ele>
        <time>2009-07-14T12:09:06Z</time>
      </trkpt>
      <trkpt lat="45.13969" lon="6.18181">
        <ele>2185</ele>
        <time>2009-07-14T12:09:09Z</time>
      </trkpt>
      <trkpt lat="45.13978" lon="6.18165">
        <ele>2184</ele>
        <time>2009-07-14T12:09:14Z</time>
      </trkpt>
      <trkpt lat="45.13982" lon="6.18146">
        <ele>2180</ele>
        <time>2009-07-14T12:09:18Z</time>
      </trkpt>
      <trkpt lat="45.1398" lon="6.18125">
        <ele>2177</ele>
        <time>2009-07-14T12:09:23Z</time>
      </trkpt>
      <trkpt lat="45.13945" lon="6.18138">
        <ele>2164</ele>
        <time>2009-07-14T12:15:23Z</time>
      </trkpt>
      <trkpt lat="45.13894" lon="6.18155">
        <ele>2151</ele>
        <time>2009-07-14T12:15:36Z</time>
      </trkpt>
      <trkpt lat="45.13868" lon="6.1817">
        <ele>2142</ele>
        <time>2009-07-14T12:16:12Z</time>
      </trkpt>
      <trkpt lat="45.13802" lon="6.182">
        <ele>2128</ele>
        <time>2009-07-14T12:16:31Z</time>
      </trkpt>
      <trkpt lat="45.13707" lon="6.18245">
        <ele>2112</ele>
        <time>2009-07-14T12:16:56Z</time>
      </trkpt>
      <trkpt lat="45.13686" lon="6.18258">
        <ele>2108</ele>
        <time>2009-07-14T12:17:20Z</time>
      </trkpt>
      <trkpt lat="45.13681" lon="6.18234">
        <ele>2101</ele>
        <time>2009-07-14T12:17:31Z</time>
      </trkpt>
      <trkpt lat="45.13686" lon="6.18219">
        <ele>2098</ele>
        <time>2009-07-14T12:18:06Z</time>
      </trkpt>
      <trkpt lat="45.13677" lon="6.18213">
        <ele>2094</ele>
        <time>2009-07-14T12:18:12Z</time>
      </trkpt>
      <trkpt lat="45.13679" lon="6.18204">
        <ele>2092</ele>
        <time>2009-07-14T12:18:16Z</time>
      </trkpt>
      <trkpt lat="45.13671" lon="6.18193">
        <ele>2088</ele>
        <time>2009-07-14T12:18:25Z</time>
      </trkpt>
      <trkpt lat="45.13662" lon="6.18193">
        <ele>2086</ele>
        <time>2009-07-14T12:18:31Z</time>
      </trkpt>
      <trkpt lat="45.13647" lon="6.18187">
        <ele>2080</ele>
        <time>2009-07-14T12:18:37Z</time>
      </trkpt>
      <trkpt lat="45.13634" lon="6.18168">
        <ele>2075</ele>
        <time>2009-07-14T12:18:52Z</time>
      </trkpt>
      <trkpt lat="45.13604" lon="6.18168">
        <ele>2070</ele>
        <time>2009-07-14T12:19:01Z</time>
      </trkpt>
      <trkpt lat="45.13583" lon="6.1815">
        <ele>2067</ele>
        <time>2009-07-14T12:19:10Z</time>
      </trkpt>
      <trkpt lat="45.13572" lon="6.18133">
        <ele>2064</ele>
        <time>2009-07-14T12:19:17Z</time>
      </trkpt>
      <trkpt lat="45.13559" lon="6.1812">
        <ele>2062</ele>
        <time>2009-07-14T12:19:31Z</time>
      </trkpt>
      <trkpt lat="45.13544" lon="6.18093">
        <ele>2058</ele>
        <time>2009-07-14T12:20:01Z</time>
      </trkpt>
      <trkpt lat="45.13531" lon="6.18078">
        <ele>2055</ele>
        <time>2009-07-14T12:20:06Z</time>
      </trkpt>
      <trkpt lat="45.13523" lon="6.1805">
        <ele>2051</ele>
        <time>2009-07-14T12:20:11Z</time>
      </trkpt>
      <trkpt lat="45.1352" lon="6.18032">
        <ele>2049</ele>
        <time>2009-07-14T12:20:14Z</time>
      </trkpt>
      <trkpt lat="45.13516" lon="6.1802">
        <ele>2049</ele>
        <time>2009-07-14T12:20:16Z</time>
      </trkpt>
      <trkpt lat="45.13516" lon="6.18">
        <ele>2047</ele>
        <time>2009-07-14T12:20:20Z</time>
      </trkpt>
      <trkpt lat="45.13514" lon="6.17964">
        <ele>2046</ele>
        <time>2009-07-14T12:20:59Z</time>
      </trkpt>
      <trkpt lat="45.13488" lon="6.17951">
        <ele>2043</ele>
        <time>2009-07-14T12:21:20Z</time>
      </trkpt>
      <trkpt lat="45.13512" lon="6.17953">
        <ele>2047</ele>
        <time>2009-07-14T12:22:17Z</time>
      </trkpt>
      <trkpt lat="45.13533" lon="6.17951">
        <ele>2050</ele>
        <time>2009-07-14T12:22:42Z</time>
      </trkpt>
      <trkpt lat="45.1354" lon="6.17955">
        <ele>2052</ele>
        <time>2009-07-14T12:22:52Z</time>
      </trkpt>
      <trkpt lat="45.13542" lon="6.17944">
        <ele>2052</ele>
        <time>2009-07-14T12:23:00Z</time>
      </trkpt>
      <trkpt lat="45.13555" lon="6.17934">
        <ele>2052</ele>
        <time>2009-07-14T12:23:22Z</time>
      </trkpt>
      <trkpt lat="45.13553" lon="6.17923">
        <ele>2052</ele>
        <time>2009-07-14T12:23:34Z</time>
      </trkpt>
      <trkpt lat="45.13533" lon="6.17925">
        <ele>2048</ele>
        <time>2009-07-14T12:23:45Z</time>
      </trkpt>
      <trkpt lat="45.13501" lon="6.1794">
        <ele>2047</ele>
        <time>2009-07-14T12:24:07Z</time>
      </trkpt>
      <trkpt lat="45.13473" lon="6.17942">
        <ele>2043</ele>
        <time>2009-07-14T12:24:27Z</time>
      </trkpt>
      <trkpt lat="45.1346" lon="6.1794">
        <ele>2044</ele>
        <time>2009-07-14T12:24:32Z</time>
      </trkpt>
      <trkpt lat="45.13422" lon="6.17917">
        <ele>2044</ele>
        <time>2009-07-14T12:24:46Z</time>
      </trkpt>
      <trkpt lat="45.13413" lon="6.17908">
        <ele>2044</ele>
        <time>2009-07-14T12:24:52Z</time>
      </trkpt>
      <trkpt lat="45.1337" lon="6.17908">
        <ele>2042</ele>
        <time>2009-07-14T12:25:29Z</time>
      </trkpt>
      <trkpt lat="45.13355" lon="6.17876">
        <ele>2041</ele>
        <time>2009-07-14T12:25:43Z</time>
      </trkpt>
      <trkpt lat="45.13336" lon="6.17867">
        <ele>2037</ele>
        <time>2009-07-14T12:25:56Z</time>
      </trkpt>
      <trkpt lat="45.13314" lon="6.17865">
        <ele>2035</ele>
        <time>2009-07-14T12:26:14Z</time>
      </trkpt>
      <trkpt lat="45.13297" lon="6.17869">
        <ele>2034</ele>
        <time>2009-07-14T12:26:27Z</time>
      </trkpt>
      <trkpt lat="45.13276" lon="6.17852">
        <ele>2036</ele>
        <time>2009-07-14T12:26:52Z</time>
      </trkpt>
      <trkpt lat="45.13259" lon="6.17861">
        <ele>2033</ele>
        <time>2009-07-14T12:27:09Z</time>
      </trkpt>
      <trkpt lat="45.13248" lon="6.17882">
        <ele>2030</ele>
        <time>2009-07-14T12:27:21Z</time>
      </trkpt>
      <trkpt lat="45.13209" lon="6.17884">
        <ele>2026</ele>
        <time>2009-07-14T12:27:41Z</time>
      </trkpt>
      <trkpt lat="45.13188" lon="6.17887">
        <ele>2025</ele>
        <time>2009-07-14T12:27:53Z</time>
      </trkpt>
      <trkpt lat="45.13151" lon="6.17889">
        <ele>2022</ele>
        <time>2009-07-14T12:28:09Z</time>
      </trkpt>
      <trkpt lat="45.13141" lon="6.17889">
        <ele>2022</ele>
        <time>2009-07-14T12:28:13Z</time>
      </trkpt>
      <trkpt lat="45.13121" lon="6.17902">
        <ele>2021</ele>
        <time>2009-07-14T12:28:43Z</time>
      </trkpt>
      <trkpt lat="45.13106" lon="6.17889">
        <ele>2021</ele>
        <time>2009-07-14T12:28:52Z</time>
      </trkpt>
      <trkpt lat="45.13085" lon="6.17889">
        <ele>2019</ele>
        <time>2009-07-14T12:29:02Z</time>
      </trkpt>
      <trkpt lat="45.13044" lon="6.1788">
        <ele>2019</ele>
        <time>2009-07-14T12:29:17Z</time>
      </trkpt>
      <trkpt lat="45.12993" lon="6.1788">
        <ele>2017</ele>
        <time>2009-07-14T12:29:34Z</time>
      </trkpt>
      <trkpt lat="45.12922" lon="6.17863">
        <ele>2016</ele>
        <time>2009-07-14T12:29:51Z</time>
      </trkpt>
      <trkpt lat="45.12887" lon="6.17848">
        <ele>2012</ele>
        <time>2009-07-14T12:29:59Z</time>
      </trkpt>
      <trkpt lat="45.12834" lon="6.17805">
        <ele>2008</ele>
        <time>2009-07-14T12:30:11Z</time>
      </trkpt>
      <trkpt lat="45.12808" lon="6.17786">
        <ele>2006</ele>
        <time>2009-07-14T12:30:17Z</time>
      </trkpt>
      <trkpt lat="45.12782" lon="6.17784">
        <ele>2005</ele>
        <time>2009-07-14T12:30:23Z</time>
      </trkpt>
      <trkpt lat="45.12765" lon="6.17754">
        <ele>2005</ele>
        <time>2009-07-14T12:30:30Z</time>
      </trkpt>
      <trkpt lat="45.12722" lon="6.17715">
        <ele>2004</ele>
        <time>2009-07-14T12:30:42Z</time>
      </trkpt>
      <trkpt lat="45.12699" lon="6.17691">
        <ele>2004</ele>
        <time>2009-07-14T12:30:50Z</time>
      </trkpt>
      <trkpt lat="45.12669" lon="6.17687">
        <ele>2004</ele>
        <time>2009-07-14T12:31:00Z</time>
      </trkpt>
      <trkpt lat="45.12619" lon="6.17657">
        <ele>2001</ele>
        <time>2009-07-14T12:31:17Z</time>
      </trkpt>
      <trkpt lat="45.12604" lon="6.17644">
        <ele>2001</ele>
        <time>2009-07-14T12:31:23Z</time>
      </trkpt>
      <trkpt lat="45.12572" lon="6.17618">
        <ele>1999</ele>
        <time>2009-07-14T12:31:34Z</time>
      </trkpt>
      <trkpt lat="45.12559" lon="6.17593">
        <ele>2000</ele>
        <time>2009-07-14T12:31:39Z</time>
      </trkpt>
      <trkpt lat="45.12553" lon="6.17586">
        <ele>2000</ele>
        <time>2009-07-14T12:31:49Z</time>
      </trkpt>
      <trkpt lat="45.12523" lon="6.17593">
        <ele>1998</ele>
        <time>2009-07-14T12:32:04Z</time>
      </trkpt>
      <trkpt lat="45.12491" lon="6.1759">
        <ele>1996</ele>
        <time>2009-07-14T12:32:18Z</time>
      </trkpt>
      <trkpt lat="45.12456" lon="6.17614">
        <ele>1997</ele>
        <time>2009-07-14T12:32:29Z</time>
      </trkpt>
      <trkpt lat="45.12445" lon="6.17616">
        <ele>1998</ele>
        <time>2009-07-14T12:32:33Z</time>
      </trkpt>
      <trkpt lat="45.12411" lon="6.17618">
        <ele>2000</ele>
        <time>2009-07-14T12:32:46Z</time>
      </trkpt>
      <trkpt lat="45.12377" lon="6.17623">
        <ele>2002</ele>
        <time>2009-07-14T12:33:04Z</time>
      </trkpt>
      <trkpt lat="45.12347" lon="6.17616">
        <ele>2004</ele>
        <time>2009-07-14T12:33:21Z</time>
      </trkpt>
      <trkpt lat="45.12319" lon="6.1761">
        <ele>2005</ele>
        <time>2009-07-14T12:33:37Z</time>
      </trkpt>
      <trkpt lat="45.12304" lon="6.17623">
        <ele>2005</ele>
        <time>2009-07-14T12:33:54Z</time>
      </trkpt>
      <trkpt lat="45.12252" lon="6.17588">
        <ele>2003</ele>
        <time>2009-07-14T12:34:24Z</time>
      </trkpt>
      <trkpt lat="45.12235" lon="6.17575">
        <ele>2002</ele>
        <time>2009-07-14T12:34:30Z</time>
      </trkpt>
      <trkpt lat="45.12207" lon="6.1756">
        <ele>1999</ele>
        <time>2009-07-14T12:34:38Z</time>
      </trkpt>
      <trkpt lat="45.12177" lon="6.17535">
        <ele>1996</ele>
        <time>2009-07-14T12:34:45Z</time>
      </trkpt>
      <trkpt lat="45.12143" lon="6.17513">
        <ele>1993</ele>
        <time>2009-07-14T12:34:54Z</time>
      </trkpt>
      <trkpt lat="45.12126" lon="6.17485">
        <ele>1988</ele>
        <time>2009-07-14T12:35:02Z</time>
      </trkpt>
      <trkpt lat="45.12113" lon="6.17466">
        <ele>1983</ele>
        <time>2009-07-14T12:35:06Z</time>
      </trkpt>
      <trkpt lat="45.12096" lon="6.17438">
        <ele>1976</ele>
        <time>2009-07-14T12:35:11Z</time>
      </trkpt>
      <trkpt lat="45.12081" lon="6.17414">
        <ele>1971</ele>
        <time>2009-07-14T12:35:16Z</time>
      </trkpt>
      <trkpt lat="45.12068" lon="6.17417">
        <ele>1967</ele>
        <time>2009-07-14T12:35:19Z</time>
      </trkpt>
      <trkpt lat="45.12055" lon="6.1741">
        <ele>1965</ele>
        <time>2009-07-14T12:35:22Z</time>
      </trkpt>
      <trkpt lat="45.12044" lon="6.17395">
        <ele>1962</ele>
        <time>2009-07-14T12:35:25Z</time>
      </trkpt>
      <trkpt lat="45.1204" lon="6.17372">
        <ele>1961</ele>
        <time>2009-07-14T12:35:29Z</time>
      </trkpt>
      <trkpt lat="45.12014" lon="6.17363">
        <ele>1958</ele>
        <time>2009-07-14T12:35:36Z</time>
      </trkpt>
      <trkpt lat="45.12008" lon="6.17363">
        <ele>1957</ele>
        <time>2009-07-14T12:35:39Z</time>
      </trkpt>
      <trkpt lat="45.12008" lon="6.17352">
        <ele>1957</ele>
        <time>2009-07-14T12:35:51Z</time>
      </trkpt>
      <trkpt lat="45.11993" lon="6.17348">
        <ele>1954</ele>
        <time>2009-07-14T12:36:08Z</time>
      </trkpt>
      <trkpt lat="45.11969" lon="6.17335">
        <ele>1952</ele>
        <time>2009-07-14T12:36:16Z</time>
      </trkpt>
      <trkpt lat="45.11933" lon="6.17324">
        <ele>1946</ele>
        <time>2009-07-14T12:36:22Z</time>
      </trkpt>
      <trkpt lat="45.11894" lon="6.17311">
        <ele>1941</ele>
        <time>2009-07-14T12:36:28Z</time>
      </trkpt>
      <trkpt lat="45.11866" lon="6.17301">
        <ele>1941</ele>
        <time>2009-07-14T12:36:35Z</time>
      </trkpt>
      <trkpt lat="45.11849" lon="6.17301">
        <ele>1941</ele>
        <time>2009-07-14T12:36:41Z</time>
      </trkpt>
      <trkpt lat="45.11832" lon="6.17296">
        <ele>1934</ele>
        <time>2009-07-14T12:36:45Z</time>
      </trkpt>
      <trkpt lat="45.1181" lon="6.17294">
        <ele>1934</ele>
        <time>2009-07-14T12:36:52Z</time>
      </trkpt>
      <trkpt lat="45.11782" lon="6.1729">
        <ele>1930</ele>
        <time>2009-07-14T12:38:19Z</time>
      </trkpt>
      <trkpt lat="45.1175" lon="6.17273">
        <ele>1922</ele>
        <time>2009-07-14T12:38:24Z</time>
      </trkpt>
      <trkpt lat="45.11729" lon="6.17271">
        <ele>1920</ele>
        <time>2009-07-14T12:38:27Z</time>
      </trkpt>
      <trkpt lat="45.11664" lon="6.17241">
        <ele>1916</ele>
        <time>2009-07-14T12:38:37Z</time>
      </trkpt>
      <trkpt lat="45.11632" lon="6.17219">
        <ele>1915</ele>
        <time>2009-07-14T12:38:43Z</time>
      </trkpt>
      <trkpt lat="45.11626" lon="6.17206">
        <ele>1917</ele>
        <time>2009-07-14T12:38:48Z</time>
      </trkpt>
      <trkpt lat="45.11619" lon="6.17202">
        <ele>1917</ele>
        <time>2009-07-14T12:39:00Z</time>
      </trkpt>
      <trkpt lat="45.11611" lon="6.17208">
        <ele>1917</ele>
        <time>2009-07-14T12:39:05Z</time>
      </trkpt>
      <trkpt lat="45.11583" lon="6.17187">
        <ele>1914</ele>
        <time>2009-07-14T12:39:15Z</time>
      </trkpt>
      <trkpt lat="45.11553" lon="6.17172">
        <ele>1914</ele>
        <time>2009-07-14T12:39:26Z</time>
      </trkpt>
      <trkpt lat="45.11527" lon="6.17148">
        <ele>1917</ele>
        <time>2009-07-14T12:39:37Z</time>
      </trkpt>
      <trkpt lat="45.11493" lon="6.1714">
        <ele>1911</ele>
        <time>2009-07-14T12:39:45Z</time>
      </trkpt>
      <trkpt lat="45.11484" lon="6.17129">
        <ele>1911</ele>
        <time>2009-07-14T12:39:48Z</time>
      </trkpt>
      <trkpt lat="45.11448" lon="6.17114">
        <ele>1911</ele>
        <time>2009-07-14T12:40:05Z</time>
      </trkpt>
      <trkpt lat="45.11435" lon="6.17112">
        <ele>1911</ele>
        <time>2009-07-14T12:40:11Z</time>
      </trkpt>
      <trkpt lat="45.11381" lon="6.17088">
        <ele>1907</ele>
        <time>2009-07-14T12:40:35Z</time>
      </trkpt>
      <trkpt lat="45.11355" lon="6.17069">
        <ele>1899</ele>
        <time>2009-07-14T12:40:41Z</time>
      </trkpt>
      <trkpt lat="45.11338" lon="6.17067">
        <ele>1895</ele>
        <time>2009-07-14T12:40:45Z</time>
      </trkpt>
      <trkpt lat="45.11285" lon="6.17033">
        <ele>1890</ele>
        <time>2009-07-14T12:40:56Z</time>
      </trkpt>
      <trkpt lat="45.1125" lon="6.17">
        <ele>1887</ele>
        <time>2009-07-14T12:41:04Z</time>
      </trkpt>
      <trkpt lat="45.1125" lon="6.16949">
        <ele>1881</ele>
        <time>2009-07-14T12:41:14Z</time>
      </trkpt>
      <trkpt lat="45.11248" lon="6.16895">
        <ele>1875</ele>
        <time>2009-07-14T12:41:26Z</time>
      </trkpt>
      <trkpt lat="45.11225" lon="6.16897">
        <ele>1876</ele>
        <time>2009-07-14T12:41:43Z</time>
      </trkpt>
      <trkpt lat="45.11184" lon="6.1685">
        <ele>1874</ele>
        <time>2009-07-14T12:42:03Z</time>
      </trkpt>
      <trkpt lat="45.11179" lon="6.16842">
        <ele>1873</ele>
        <time>2009-07-14T12:42:05Z</time>
      </trkpt>
      <trkpt lat="45.11158" lon="6.16839">
        <ele>1872</ele>
        <time>2009-07-14T12:42:17Z</time>
      </trkpt>
      <trkpt lat="45.11124" lon="6.16842">
        <ele>1867</ele>
        <time>2009-07-14T12:42:30Z</time>
      </trkpt>
      <trkpt lat="45.11091" lon="6.1685">
        <ele>1865</ele>
        <time>2009-07-14T12:42:40Z</time>
      </trkpt>
      <trkpt lat="45.11104" lon="6.16865">
        <ele>1861</ele>
        <time>2009-07-14T12:42:46Z</time>
      </trkpt>
      <trkpt lat="45.11087" lon="6.16878">
        <ele>1853</ele>
        <time>2009-07-14T12:42:54Z</time>
      </trkpt>
      <trkpt lat="45.11079" lon="6.16869">
        <ele>1850</ele>
        <time>2009-07-14T12:42:58Z</time>
      </trkpt>
      <trkpt lat="45.11079" lon="6.16887">
        <ele>1844</ele>
        <time>2009-07-14T12:43:07Z</time>
      </trkpt>
      <trkpt lat="45.11061" lon="6.16867">
        <ele>1838</ele>
        <time>2009-07-14T12:43:21Z</time>
      </trkpt>
      <trkpt lat="45.11049" lon="6.1688">
        <ele>1832</ele>
        <time>2009-07-14T12:43:29Z</time>
      </trkpt>
      <trkpt lat="45.1104" lon="6.16865">
        <ele>1826</ele>
        <time>2009-07-14T12:43:33Z</time>
      </trkpt>
      <trkpt lat="45.11034" lon="6.16848">
        <ele>1823</ele>
        <time>2009-07-14T12:43:56Z</time>
      </trkpt>
      <trkpt lat="45.1101" lon="6.16852">
        <ele>1824</ele>
        <time>2009-07-14T12:44:10Z</time>
      </trkpt>
      <trkpt lat="45.10986" lon="6.16839">
        <ele>1821</ele>
        <time>2009-07-14T12:44:15Z</time>
      </trkpt>
      <trkpt lat="45.10967" lon="6.16837">
        <ele>1819</ele>
        <time>2009-07-14T12:44:20Z</time>
      </trkpt>
      <trkpt lat="45.10943" lon="6.16833">
        <ele>1815</ele>
        <time>2009-07-14T12:44:25Z</time>
      </trkpt>
      <trkpt lat="45.10918" lon="6.16803">
        <ele>1811</ele>
        <time>2009-07-14T12:44:31Z</time>
      </trkpt>
      <trkpt lat="45.10896" lon="6.16775">
        <ele>1805</ele>
        <time>2009-07-14T12:44:38Z</time>
      </trkpt>
      <trkpt lat="45.10883" lon="6.16764">
        <ele>1805</ele>
        <time>2009-07-14T12:44:44Z</time>
      </trkpt>
      <trkpt lat="45.10868" lon="6.16766">
        <ele>1796</ele>
        <time>2009-07-14T12:45:46Z</time>
      </trkpt>
      <trkpt lat="45.10834" lon="6.16779">
        <ele>1787</ele>
        <time>2009-07-14T12:45:54Z</time>
      </trkpt>
      <trkpt lat="45.10804" lon="6.16756">
        <ele>1778</ele>
        <time>2009-07-14T12:46:02Z</time>
      </trkpt>
      <trkpt lat="45.10806" lon="6.16751">
        <ele>1776</ele>
        <time>2009-07-14T12:46:05Z</time>
      </trkpt>
      <trkpt lat="45.10819" lon="6.16754">
        <ele>1772</ele>
        <time>2009-07-14T12:46:10Z</time>
      </trkpt>
      <trkpt lat="45.10836" lon="6.16743">
        <ele>1767</ele>
        <time>2009-07-14T12:46:16Z</time>
      </trkpt>
      <trkpt lat="45.1083" lon="6.16734">
        <ele>1761</ele>
        <time>2009-07-14T12:46:22Z</time>
      </trkpt>
      <trkpt lat="45.10849" lon="6.16713">
        <ele>1755</ele>
        <time>2009-07-14T12:46:31Z</time>
      </trkpt>
      <trkpt lat="45.10815" lon="6.16702">
        <ele>1746</ele>
        <time>2009-07-14T12:46:42Z</time>
      </trkpt>
      <trkpt lat="45.10825" lon="6.16672">
        <ele>1738</ele>
        <time>2009-07-14T12:46:51Z</time>
      </trkpt>
      <trkpt lat="45.10825" lon="6.16653">
        <ele>1737</ele>
        <time>2009-07-14T12:46:54Z</time>
      </trkpt>
      <trkpt lat="45.1081" lon="6.16655">
        <ele>1741</ele>
        <time>2009-07-14T12:48:28Z</time>
      </trkpt>
      <trkpt lat="45.10798" lon="6.16661">
        <ele>1739</ele>
        <time>2009-07-14T12:48:48Z</time>
      </trkpt>
      <trkpt lat="45.10774" lon="6.16659">
        <ele>1742</ele>
        <time>2009-07-14T12:49:30Z</time>
      </trkpt>
      <trkpt lat="45.10765" lon="6.16657">
        <ele>1743</ele>
        <time>2009-07-14T12:49:43Z</time>
      </trkpt>
      <trkpt lat="45.10746" lon="6.16661">
        <ele>1746</ele>
        <time>2009-07-14T12:50:18Z</time>
      </trkpt>
      <trkpt lat="45.10729" lon="6.16657">
        <ele>1745</ele>
        <time>2009-07-14T12:53:57Z</time>
      </trkpt>
      <trkpt lat="45.10714" lon="6.16646">
        <ele>1746</ele>
        <time>2009-07-14T12:54:14Z</time>
      </trkpt>
      <trkpt lat="45.10692" lon="6.16618">
        <ele>1748</ele>
        <time>2009-07-14T12:54:50Z</time>
      </trkpt>
      <trkpt lat="45.10682" lon="6.16593">
        <ele>1750</ele>
        <time>2009-07-14T12:55:05Z</time>
      </trkpt>
      <trkpt lat="45.10671" lon="6.16552">
        <ele>1753</ele>
        <time>2009-07-14T12:55:29Z</time>
      </trkpt>
      <trkpt lat="45.10641" lon="6.1649">
        <ele>1758</ele>
        <time>2009-07-14T12:56:11Z</time>
      </trkpt>
      <trkpt lat="45.1063" lon="6.16477">
        <ele>1761</ele>
        <time>2009-07-14T12:56:23Z</time>
      </trkpt>
      <trkpt lat="45.10598" lon="6.16453">
        <ele>1762</ele>
        <time>2009-07-14T12:56:49Z</time>
      </trkpt>
      <trkpt lat="45.10557" lon="6.1644">
        <ele>1762</ele>
        <time>2009-07-14T12:57:10Z</time>
      </trkpt>
      <trkpt lat="45.10525" lon="6.16389">
        <ele>1756</ele>
        <time>2009-07-14T12:57:22Z</time>
      </trkpt>
      <trkpt lat="45.10489" lon="6.16365">
        <ele>1751</ele>
        <time>2009-07-14T12:57:28Z</time>
      </trkpt>
      <trkpt lat="45.10454" lon="6.16316">
        <ele>1747</ele>
        <time>2009-07-14T12:57:34Z</time>
      </trkpt>
      <trkpt lat="45.10416" lon="6.16282">
        <ele>1741</ele>
        <time>2009-07-14T12:57:39Z</time>
      </trkpt>
      <trkpt lat="45.10396" lon="6.16258">
        <ele>1739</ele>
        <time>2009-07-14T12:57:42Z</time>
      </trkpt>
      <trkpt lat="45.10362" lon="6.16241">
        <ele>1735</ele>
        <time>2009-07-14T12:57:46Z</time>
      </trkpt>
      <trkpt lat="45.10343" lon="6.16213">
        <ele>1732</ele>
        <time>2009-07-14T12:57:49Z</time>
      </trkpt>
      <trkpt lat="45.10325" lon="6.162">
        <ele>1731</ele>
        <time>2009-07-14T12:57:51Z</time>
      </trkpt>
      <trkpt lat="45.10287" lon="6.16161">
        <ele>1732</ele>
        <time>2009-07-14T12:57:57Z</time>
      </trkpt>
      <trkpt lat="45.10259" lon="6.16153">
        <ele>1734</ele>
        <time>2009-07-14T12:58:03Z</time>
      </trkpt>
      <trkpt lat="45.10214" lon="6.16142">
        <ele>1737</ele>
        <time>2009-07-14T12:58:22Z</time>
      </trkpt>
      <trkpt lat="45.10162" lon="6.16116">
        <ele>1735</ele>
        <time>2009-07-14T12:58:43Z</time>
      </trkpt>
      <trkpt lat="45.10115" lon="6.16082">
        <ele>1736</ele>
        <time>2009-07-14T12:59:04Z</time>
      </trkpt>
      <trkpt lat="45.10079" lon="6.1605">
        <ele>1737</ele>
        <time>2009-07-14T12:59:24Z</time>
      </trkpt>
      <trkpt lat="45.10029" lon="6.16022">
        <ele>1736</ele>
        <time>2009-07-14T12:59:46Z</time>
      </trkpt>
      <trkpt lat="45.10014" lon="6.15996">
        <ele>1736</ele>
        <time>2009-07-14T12:59:54Z</time>
      </trkpt>
      <trkpt lat="45.09961" lon="6.15951">
        <ele>1742</ele>
        <time>2009-07-14T13:00:33Z</time>
      </trkpt>
      <trkpt lat="45.09909" lon="6.15895">
        <ele>1748</ele>
        <time>2009-07-14T13:01:19Z</time>
      </trkpt>
      <trkpt lat="45.09871" lon="6.15865">
        <ele>1752</ele>
        <time>2009-07-14T13:01:52Z</time>
      </trkpt>
      <trkpt lat="45.09823" lon="6.15767">
        <ele>1761</ele>
        <time>2009-07-14T13:02:59Z</time>
      </trkpt>
      <trkpt lat="45.09759" lon="6.15687">
        <ele>1768</ele>
        <time>2009-07-14T13:04:05Z</time>
      </trkpt>
      <trkpt lat="45.09622" lon="6.15618">
        <ele>1780</ele>
        <time>2009-07-14T13:05:53Z</time>
      </trkpt>
      <trkpt lat="45.09594" lon="6.1558">
        <ele>1784</ele>
        <time>2009-07-14T13:06:54Z</time>
      </trkpt>
      <trkpt lat="45.09454" lon="6.15412">
        <ele>1805</ele>
        <time>2009-07-14T13:09:17Z</time>
      </trkpt>
      <trkpt lat="45.09364" lon="6.15301">
        <ele>1817</ele>
        <time>2009-07-14T13:10:53Z</time>
      </trkpt>
      <trkpt lat="45.09293" lon="6.15269">
        <ele>1819</ele>
        <time>2009-07-14T13:11:59Z</time>
      </trkpt>
      <trkpt lat="45.09405" lon="6.15284">
        <ele>1830</ele>
        <time>2009-07-14T13:13:59Z</time>
      </trkpt>
      <trkpt lat="45.0954" lon="6.15352">
        <ele>1845</ele>
        <time>2009-07-14T13:15:53Z</time>
      </trkpt>
      <trkpt lat="45.09665" lon="6.15417">
        <ele>1860</ele>
        <time>2009-07-14T13:17:49Z</time>
      </trkpt>
      <trkpt lat="45.09722" lon="6.15449">
        <ele>1866</ele>
        <time>2009-07-14T13:18:39Z</time>
      </trkpt>
      <trkpt lat="45.09722" lon="6.15432">
        <ele>1870</ele>
        <time>2009-07-14T13:19:17Z</time>
      </trkpt>
      <trkpt lat="45.09645" lon="6.15357">
        <ele>1877</ele>
        <time>2009-07-14T13:20:22Z</time>
      </trkpt>
      <trkpt lat="45.09516" lon="6.15179">
        <ele>1895</ele>
        <time>2009-07-14T13:23:17Z</time>
      </trkpt>
      <trkpt lat="45.09403" lon="6.15121">
        <ele>1908</ele>
        <time>2009-07-14T13:24:54Z</time>
      </trkpt>
      <trkpt lat="45.09366" lon="6.1511">
        <ele>1910</ele>
        <time>2009-07-14T13:25:25Z</time>
      </trkpt>
      <trkpt lat="45.09336" lon="6.15078">
        <ele>1914</ele>
        <time>2009-07-14T13:25:53Z</time>
      </trkpt>
      <trkpt lat="45.09306" lon="6.15078">
        <ele>1917</ele>
        <time>2009-07-14T13:26:17Z</time>
      </trkpt>
      <trkpt lat="45.09203" lon="6.15028">
        <ele>1924</ele>
        <time>2009-07-14T13:27:41Z</time>
      </trkpt>
      <trkpt lat="45.09087" lon="6.14895">
        <ele>1945</ele>
        <time>2009-07-14T13:29:56Z</time>
      </trkpt>
      <trkpt lat="45.09038" lon="6.14917">
        <ele>1949</ele>
        <time>2009-07-14T13:30:27Z</time>
      </trkpt>
      <trkpt lat="45.08989" lon="6.14966">
        <ele>1956</ele>
        <time>2009-07-14T13:31:13Z</time>
      </trkpt>
      <trkpt lat="45.09032" lon="6.14889">
        <ele>1962</ele>
        <time>2009-07-14T13:32:09Z</time>
      </trkpt>
      <trkpt lat="45.09023" lon="6.14885">
        <ele>1963</ele>
        <time>2009-07-14T13:32:16Z</time>
      </trkpt>
      <trkpt lat="45.08954" lon="6.14938">
        <ele>1971</ele>
        <time>2009-07-14T13:34:01Z</time>
      </trkpt>
      <trkpt lat="45.08901" lon="6.14925">
        <ele>1977</ele>
        <time>2009-07-14T13:34:35Z</time>
      </trkpt>
      <trkpt lat="45.08877" lon="6.14945">
        <ele>1979</ele>
        <time>2009-07-14T13:34:54Z</time>
      </trkpt>
      <trkpt lat="45.08826" lon="6.14936">
        <ele>1983</ele>
        <time>2009-07-14T13:35:29Z</time>
      </trkpt>
      <trkpt lat="45.0875" lon="6.14913">
        <ele>1990</ele>
        <time>2009-07-14T13:36:34Z</time>
      </trkpt>
      <trkpt lat="45.08675" lon="6.14878">
        <ele>1982</ele>
        <time>2009-07-14T13:39:23Z</time>
      </trkpt>
      <trkpt lat="45.08581" lon="6.14769">
        <ele>1972</ele>
        <time>2009-07-14T13:39:37Z</time>
      </trkpt>
      <trkpt lat="45.08497" lon="6.14681">
        <ele>1964</ele>
        <time>2009-07-14T13:39:48Z</time>
      </trkpt>
      <trkpt lat="45.08448" lon="6.1461">
        <ele>1962</ele>
        <time>2009-07-14T13:39:55Z</time>
      </trkpt>
      <trkpt lat="45.08242" lon="6.14284">
        <ele>1930</ele>
        <time>2009-07-14T13:40:22Z</time>
      </trkpt>
      <trkpt lat="45.08143" lon="6.14074">
        <ele>1911</ele>
        <time>2009-07-14T13:40:35Z</time>
      </trkpt>
      <trkpt lat="45.0813" lon="6.14036">
        <ele>1922</ele>
        <time>2009-07-17T23:44:54Z</time>
      </trkpt>
      <trkpt lat="45.08071" lon="6.13857">
        <ele>1913</ele>
        <time>2009-07-17T23:44:54Z</time>
      </trkpt>
      <trkpt lat="45.08063" lon="6.13666">
        <ele>1885</ele>
        <time>2009-07-17T23:44:54Z</time>
      </trkpt>
      <trkpt lat="45.08043" lon="6.13557">
        <ele>1878</ele>
        <time>2009-07-17T23:44:54Z</time>
      </trkpt>
      <trkpt lat="45.07982" lon="6.13394">
        <ele>1875</ele>
        <time>2009-07-17T23:44:54Z</time>
      </trkpt>
      <trkpt lat="45.07953" lon="6.13258">
        <ele>1860</ele>
        <time>2009-07-17T23:44:54Z</time>
      </trkpt>
      <trkpt lat="45.07944" lon="6.13189">
        <ele>1852</ele>
        <time>2009-07-17T23:44:54Z</time>
      </trkpt>
      <trkpt lat="45.07976" lon="6.13088">
        <ele>1842</ele>
        <time>2009-07-17T23:44:54Z</time>
      </trkpt>
      <trkpt lat="45.07993" lon="6.13123">
        <ele>1845</ele>
        <time>2009-07-17T23:44:54Z</time>
      </trkpt>
      <trkpt lat="45.0802" lon="6.13206">
        <ele>1837</ele>
        <time>2009-07-17T23:44:54Z</time>
      </trkpt>
      <trkpt lat="45.08053" lon="6.13243">
        <ele>1839</ele>
        <time>2009-07-17T23:44:54Z</time>
      </trkpt>
      <trkpt lat="45.08109" lon="6.13207">
        <ele>1834</ele>
        <time>2009-07-17T23:44:54Z</time>
      </trkpt>
      <trkpt lat="45.08143" lon="6.13139">
        <ele>1832</ele>
        <time>2009-07-17T23:44:54Z</time>
      </trkpt>
      <trkpt lat="45.08124" lon="6.131">
        <ele>1823</ele>
        <time>2009-07-17T23:44:54Z</time>
      </trkpt>
      <trkpt lat="45.08123" lon="6.13057">
        <ele>1818</ele>
        <time>2009-07-17T23:44:54Z</time>
      </trkpt>
      <trkpt lat="45.08172" lon="6.12947">
        <ele>1825</ele>
        <time>2009-07-17T23:44:54Z</time>
      </trkpt>
      <trkpt lat="45.08163" lon="6.12853">
        <ele>1811</ele>
        <time>2009-07-17T23:44:54Z</time>
      </trkpt>
      <trkpt lat="45.08159" lon="6.12807">
        <ele>1807</ele>
        <time>2009-07-17T23:44:54Z</time>
      </trkpt>
      <trkpt lat="45.08127" lon="6.12674">
        <ele>1799</ele>
        <time>2009-07-17T23:44:54Z</time>
      </trkpt>
      <trkpt lat="45.08045" lon="6.12521">
        <ele>1785</ele>
        <time>2009-07-17T23:44:54Z</time>
      </trkpt>
      <trkpt lat="45.07961" lon="6.12378">
        <ele>1770</ele>
        <time>2009-07-17T23:44:54Z</time>
      </trkpt>
      <trkpt lat="45.07927" lon="6.12251">
        <ele>1766</ele>
        <time>2009-07-17T23:44:54Z</time>
      </trkpt>
      <trkpt lat="45.07907" lon="6.12079">
        <ele>1770</ele>
        <time>2009-07-17T23:44:54Z</time>
      </trkpt>
      <trkpt lat="45.07867" lon="6.11945">
        <ele>1757</ele>
        <time>2009-07-17T23:44:54Z</time>
      </trkpt>
      <trkpt lat="45.07879" lon="6.11807">
        <ele>1767</ele>
        <time>2009-07-17T23:44:54Z</time>
      </trkpt>
      <trkpt lat="45.07947" lon="6.11599">
        <ele>1781</ele>
        <time>2009-07-17T23:44:54Z</time>
      </trkpt>
      <trkpt lat="45.07984" lon="6.11506">
        <ele>1793</ele>
        <time>2009-07-17T23:44:54Z</time>
      </trkpt>
      <trkpt lat="45.08008" lon="6.11408">
        <ele>1791</ele>
        <time>2009-07-17T23:44:54Z</time>
      </trkpt>
      <trkpt lat="45.0803" lon="6.11301">
        <ele>1798</ele>
        <time>2009-07-17T23:44:54Z</time>
      </trkpt>
      <trkpt lat="45.08025" lon="6.11239">
        <ele>1794</ele>
        <time>2009-07-17T23:44:54Z</time>
      </trkpt>
      <trkpt lat="45.08039" lon="6.11137">
        <ele>1810</ele>
        <time>2009-07-17T23:44:54Z</time>
      </trkpt>
      <trkpt lat="45.08026" lon="6.11066">
        <ele>1807</ele>
        <time>2009-07-17T23:44:54Z</time>
      </trkpt>
      <trkpt lat="45.08024" lon="6.10972">
        <ele>1806</ele>
        <time>2009-07-17T23:44:54Z</time>
      </trkpt>
      <trkpt lat="45.08105" lon="6.10915">
        <ele>1806</ele>
        <time>2009-07-17T23:44:54Z</time>
      </trkpt>
      <trkpt lat="45.08165" lon="6.10906">
        <ele>1809</ele>
        <time>2009-07-17T23:44:54Z</time>
      </trkpt>
      <trkpt lat="45.08317" lon="6.1076">
        <ele>1825</ele>
        <time>2009-07-17T23:44:54Z</time>
      </trkpt>
      <trkpt lat="45.08392" lon="6.10715">
        <ele>1830</ele>
        <time>2009-07-17T23:44:54Z</time>
      </trkpt>
      <trkpt lat="45.08431" lon="6.10632">
        <ele>1836</ele>
        <time>2009-07-17T23:44:54Z</time>
      </trkpt>
      <trkpt lat="45.08521" lon="6.10565">
        <ele>1844</ele>
        <time>2009-07-17T23:44:54Z</time>
      </trkpt>
      <trkpt lat="45.08487" lon="6.10464">
        <ele>1846</ele>
        <time>2009-07-17T23:44:54Z</time>
      </trkpt>
      <trkpt lat="45.0848" lon="6.10149">
        <ele>1853</ele>
        <time>2009-07-17T23:44:54Z</time>
      </trkpt>
      <trkpt lat="45.08467" lon="6.09926">
        <ele>1847</ele>
        <time>2009-07-17T23:44:54Z</time>
      </trkpt>
      <trkpt lat="45.08471" lon="6.09846">
        <ele>1846</ele>
        <time>2009-07-17T23:44:54Z</time>
      </trkpt>
      <trkpt lat="45.08489" lon="6.09763">
        <ele>1844</ele>
        <time>2009-07-17T23:44:54Z</time>
      </trkpt>
      <trkpt lat="45.08514" lon="6.09666">
        <ele>1839</ele>
        <time>2009-07-17T23:44:54Z</time>
      </trkpt>
      <trkpt lat="45.08536" lon="6.09585">
        <ele>1838</ele>
        <time>2009-07-17T23:44:54Z</time>
      </trkpt>
      <trkpt lat="45.08544" lon="6.09445">
        <ele>1838</ele>
        <time>2009-07-17T23:44:54Z</time>
      </trkpt>
      <trkpt lat="45.08562" lon="6.09351">
        <ele>1842</ele>
        <time>2009-07-17T23:44:54Z</time>
      </trkpt>
      <trkpt lat="45.08598" lon="6.0919">
        <ele>1842</ele>
        <time>2009-07-17T23:44:54Z</time>
      </trkpt>
      <trkpt lat="45.08611" lon="6.09134">
        <ele>1842</ele>
        <time>2009-07-17T23:44:54Z</time>
      </trkpt>
      <trkpt lat="45.08605" lon="6.08999">
        <ele>1845</ele>
        <time>2009-07-17T23:44:54Z</time>
      </trkpt>
      <trkpt lat="45.0862" lon="6.08979">
        <ele>1846</ele>
        <time>2009-07-17T23:44:54Z</time>
      </trkpt>
      <trkpt lat="45.08641" lon="6.09007">
        <ele>1847</ele>
        <time>2009-07-17T23:44:54Z</time>
      </trkpt>
      <trkpt lat="45.08647" lon="6.0905">
        <ele>1848</ele>
        <time>2009-07-17T23:44:54Z</time>
      </trkpt>
      <trkpt lat="45.08684" lon="6.09128">
        <ele>1853</ele>
        <time>2009-07-17T23:44:54Z</time>
      </trkpt>
      <trkpt lat="45.08705" lon="6.09224">
        <ele>1857</ele>
        <time>2009-07-17T23:44:54Z</time>
      </trkpt>
      <trkpt lat="45.08729" lon="6.09233">
        <ele>1858</ele>
        <time>2009-07-17T23:44:54Z</time>
      </trkpt>
      <trkpt lat="45.0874" lon="6.09128">
        <ele>1861</ele>
        <time>2009-07-17T23:44:54Z</time>
      </trkpt>
      <trkpt lat="45.08787" lon="6.08988">
        <ele>1869</ele>
        <time>2009-07-17T23:44:54Z</time>
      </trkpt>
      <trkpt lat="45.08864" lon="6.08855">
        <ele>1876</ele>
        <time>2009-07-17T23:44:54Z</time>
      </trkpt>
      <trkpt lat="45.08916" lon="6.08718">
        <ele>1874</ele>
        <time>2009-07-17T23:44:54Z</time>
      </trkpt>
      <trkpt lat="45.08933" lon="6.08583">
        <ele>1870</ele>
        <time>2009-07-17T23:44:54Z</time>
      </trkpt>
      <trkpt lat="45.08993" lon="6.08458">
        <ele>1869</ele>
        <time>2009-07-17T23:44:54Z</time>
      </trkpt>
      <trkpt lat="45.0898" lon="6.08321">
        <ele>1862</ele>
        <time>2009-07-17T23:44:54Z</time>
      </trkpt>
      <trkpt lat="45.08954" lon="6.08194">
        <ele>1853</ele>
        <time>2009-07-17T23:44:54Z</time>
      </trkpt>
      <trkpt lat="45.09017" lon="6.08093">
        <ele>1848</ele>
        <time>2009-07-17T23:44:54Z</time>
      </trkpt>
      <trkpt lat="45.09027" lon="6.08001">
        <ele>1842</ele>
        <time>2009-07-17T23:44:54Z</time>
      </trkpt>
      <trkpt lat="45.09062" lon="6.07952">
        <ele>1838</ele>
        <time>2009-07-17T23:44:54Z</time>
      </trkpt>
      <trkpt lat="45.09051" lon="6.07898">
        <ele>1835</ele>
        <time>2009-07-17T23:44:54Z</time>
      </trkpt>
      <trkpt lat="45.08993" lon="6.07926">
        <ele>1832</ele>
        <time>2009-07-17T23:44:54Z</time>
      </trkpt>
      <trkpt lat="45.08914" lon="6.07999">
        <ele>1826</ele>
        <time>2009-07-17T23:44:54Z</time>
      </trkpt>
      <trkpt lat="45.08888" lon="6.07967">
        <ele>1821</ele>
        <time>2009-07-17T23:44:54Z</time>
      </trkpt>
      <trkpt lat="45.08903" lon="6.07883">
        <ele>1817</ele>
        <time>2009-07-17T23:44:54Z</time>
      </trkpt>
      <trkpt lat="45.08939" lon="6.07825">
        <ele>1816</ele>
        <time>2009-07-17T23:44:54Z</time>
      </trkpt>
      <trkpt lat="45.08939" lon="6.07776">
        <ele>1813</ele>
        <time>2009-07-17T23:44:54Z</time>
      </trkpt>
      <trkpt lat="45.08881" lon="6.07782">
        <ele>1810</ele>
        <time>2009-07-17T23:44:54Z</time>
      </trkpt>
      <trkpt lat="45.08864" lon="6.07718">
        <ele>1809</ele>
        <time>2009-07-17T23:44:54Z</time>
      </trkpt>
      <trkpt lat="45.08941" lon="6.07651">
        <ele>1811</ele>
        <time>2009-07-17T23:44:54Z</time>
      </trkpt>
      <trkpt lat="45.08974" lon="6.07595">
        <ele>1811</ele>
        <time>2009-07-17T23:44:54Z</time>
      </trkpt>
      <trkpt lat="45.08993" lon="6.07505">
        <ele>1811</ele>
        <time>2009-07-17T23:44:54Z</time>
      </trkpt>
      <trkpt lat="45.09023" lon="6.0745">
        <ele>1812</ele>
        <time>2009-07-17T23:44:54Z</time>
      </trkpt>
      <trkpt lat="45.09218" lon="6.07269">
        <ele>1826</ele>
        <time>2009-07-17T23:44:54Z</time>
      </trkpt>
      <trkpt lat="45.09218" lon="6.07269">
        <ele>1826</ele>
        <time>2009-07-17T23:44:54Z</time>
      </trkpt>
      <trkpt lat="45.09248" lon="6.07244">
        <ele>1788</ele>
        <time>2009-07-17T23:44:54Z</time>
      </trkpt>
      <trkpt lat="45.09283" lon="6.07205">
        <ele>1833</ele>
        <time>2009-07-17T23:44:54Z</time>
      </trkpt>
      <trkpt lat="45.09596" lon="6.07035">
        <ele>1856</ele>
        <time>2009-07-17T23:44:54Z</time>
      </trkpt>
      <trkpt lat="45.09813" lon="6.06928">
        <ele>1868</ele>
        <time>2009-07-17T23:44:54Z</time>
      </trkpt>
      <trkpt lat="45.09864" lon="6.06883">
        <ele>1872</ele>
        <time>2009-07-17T23:44:54Z</time>
      </trkpt>
      <trkpt lat="45.09965" lon="6.0684">
        <ele>1879</ele>
        <time>2009-07-17T23:44:54Z</time>
      </trkpt>
      <trkpt lat="45.10207" lon="6.06752">
        <ele>1899</ele>
        <time>2009-07-17T23:44:54Z</time>
      </trkpt>
      <trkpt lat="45.1031" lon="6.06677">
        <ele>1908</ele>
        <time>2009-07-17T23:44:54Z</time>
      </trkpt>
      <trkpt lat="45.10443" lon="6.06696">
        <ele>1921</ele>
        <time>2009-07-17T23:44:54Z</time>
      </trkpt>
      <trkpt lat="45.10538" lon="6.06741">
        <ele>1931</ele>
        <time>2009-07-17T23:44:54Z</time>
      </trkpt>
      <trkpt lat="45.10654" lon="6.06859">
        <ele>1947</ele>
        <time>2009-07-17T23:44:54Z</time>
      </trkpt>
      <trkpt lat="45.10767" lon="6.0701">
        <ele>1959</ele>
        <time>2009-07-17T23:44:54Z</time>
      </trkpt>
      <trkpt lat="45.10838" lon="6.07033">
        <ele>1967</ele>
        <time>2009-07-17T23:44:54Z</time>
      </trkpt>
      <trkpt lat="45.10883" lon="6.06992">
        <ele>1974</ele>
        <time>2009-07-17T23:44:54Z</time>
      </trkpt>
      <trkpt lat="45.10877" lon="6.06894">
        <ele>1980</ele>
        <time>2009-07-17T23:44:54Z</time>
      </trkpt>
      <trkpt lat="45.10836" lon="6.06799">
        <ele>1985</ele>
        <time>2009-07-17T23:44:54Z</time>
      </trkpt>
      <trkpt lat="45.10793" lon="6.06696">
        <ele>1990</ele>
        <time>2009-07-17T23:44:54Z</time>
      </trkpt>
      <trkpt lat="45.10767" lon="6.0663">
        <ele>1989</ele>
        <time>2009-07-17T23:44:54Z</time>
      </trkpt>
      <trkpt lat="45.10795" lon="6.06518">
        <ele>1993</ele>
        <time>2009-07-17T23:44:54Z</time>
      </trkpt>
      <trkpt lat="45.10873" lon="6.06527">
        <ele>1981</ele>
        <time>2009-07-17T23:44:54Z</time>
      </trkpt>
      <trkpt lat="45.10976" lon="6.0654">
        <ele>1969</ele>
        <time>2009-07-17T23:44:54Z</time>
      </trkpt>
      <trkpt lat="45.11096" lon="6.06546">
        <ele>1953</ele>
        <time>2009-07-17T23:44:54Z</time>
      </trkpt>
      <trkpt lat="45.11194" lon="6.06525">
        <ele>1939</ele>
        <time>2009-07-17T23:44:54Z</time>
      </trkpt>
      <trkpt lat="45.11259" lon="6.06495">
        <ele>1926</ele>
        <time>2009-07-17T23:44:54Z</time>
      </trkpt>
      <trkpt lat="45.1127" lon="6.06486">
        <ele>1923</ele>
        <time>2009-07-17T23:44:54Z</time>
      </trkpt>
      <trkpt lat="45.11265" lon="6.06467">
        <ele>1917</ele>
        <time>2009-07-17T23:44:54Z</time>
      </trkpt>
      <trkpt lat="45.11282" lon="6.06454">
        <ele>1914</ele>
        <time>2009-07-17T23:44:54Z</time>
      </trkpt>
      <trkpt lat="45.11282" lon="6.06439">
        <ele>1909</ele>
        <time>2009-07-17T23:44:54Z</time>
      </trkpt>
      <trkpt lat="45.1133" lon="6.06432">
        <ele>1901</ele>
        <time>2009-07-17T23:44:54Z</time>
      </trkpt>
      <trkpt lat="45.11368" lon="6.0642">
        <ele>1892</ele>
        <time>2009-07-17T23:44:54Z</time>
      </trkpt>
      <trkpt lat="45.1139" lon="6.06392">
        <ele>1881</ele>
        <time>2009-07-17T23:44:54Z</time>
      </trkpt>
      <trkpt lat="45.11435" lon="6.06355">
        <ele>1869</ele>
        <time>2009-07-17T23:44:54Z</time>
      </trkpt>
      <trkpt lat="45.11454" lon="6.06349">
        <ele>1864</ele>
        <time>2009-07-17T23:44:54Z</time>
      </trkpt>
      <trkpt lat="45.11461" lon="6.06338">
        <ele>1861</ele>
        <time>2009-07-17T23:44:54Z</time>
      </trkpt>
      <trkpt lat="45.11482" lon="6.06329">
        <ele>1855</ele>
        <time>2009-07-17T23:44:54Z</time>
      </trkpt>
      <trkpt lat="45.11501" lon="6.06334">
        <ele>1850</ele>
        <time>2009-07-17T23:44:54Z</time>
      </trkpt>
      <trkpt lat="45.11536" lon="6.06306">
        <ele>1833</ele>
        <time>2009-07-17T23:44:54Z</time>
      </trkpt>
      <trkpt lat="45.11587" lon="6.06284">
        <ele>1821</ele>
        <time>2009-07-17T23:44:54Z</time>
      </trkpt>
      <trkpt lat="45.11589" lon="6.06261">
        <ele>1816</ele>
        <time>2009-07-17T23:44:54Z</time>
      </trkpt>
      <trkpt lat="45.116" lon="6.06246">
        <ele>1814</ele>
        <time>2009-07-17T23:44:54Z</time>
      </trkpt>
      <trkpt lat="45.11634" lon="6.06214">
        <ele>1804</ele>
        <time>2009-07-17T23:44:54Z</time>
      </trkpt>
      <trkpt lat="45.11639" lon="6.06186">
        <ele>1795</ele>
        <time>2009-07-17T23:44:54Z</time>
      </trkpt>
      <trkpt lat="45.11624" lon="6.06179">
        <ele>1793</ele>
        <time>2009-07-17T23:44:54Z</time>
      </trkpt>
      <trkpt lat="45.11626" lon="6.0616">
        <ele>1788</ele>
        <time>2009-07-17T23:44:54Z</time>
      </trkpt>
      <trkpt lat="45.11673" lon="6.06145">
        <ele>1777</ele>
        <time>2009-07-17T23:44:54Z</time>
      </trkpt>
      <trkpt lat="45.11669" lon="6.06136">
        <ele>1773</ele>
        <time>2009-07-17T23:44:54Z</time>
      </trkpt>
      <trkpt lat="45.11688" lon="6.06134">
        <ele>1765</ele>
        <time>2009-07-17T23:44:54Z</time>
      </trkpt>
      <trkpt lat="45.11701" lon="6.06136">
        <ele>1760</ele>
        <time>2009-07-17T23:44:54Z</time>
      </trkpt>
      <trkpt lat="45.11688" lon="6.06108">
        <ele>1751</ele>
        <time>2009-07-17T23:44:54Z</time>
      </trkpt>
      <trkpt lat="45.11671" lon="6.06083">
        <ele>1743</ele>
        <time>2009-07-17T23:44:54Z</time>
      </trkpt>
      <trkpt lat="45.11647" lon="6.06074">
        <ele>1738</ele>
        <time>2009-07-17T23:44:54Z</time>
      </trkpt>
      <trkpt lat="45.11671" lon="6.06059">
        <ele>1731</ele>
        <time>2009-07-17T23:44:54Z</time>
      </trkpt>
      <trkpt lat="45.11677" lon="6.06048">
        <ele>1727</ele>
        <time>2009-07-17T23:44:54Z</time>
      </trkpt>
      <trkpt lat="45.11677" lon="6.06038">
        <ele>1725</ele>
        <time>2009-07-17T23:44:54Z</time>
      </trkpt>
      <trkpt lat="45.11694" lon="6.06035">
        <ele>1721</ele>
        <time>2009-07-17T23:44:54Z</time>
      </trkpt>
      <trkpt lat="45.11707" lon="6.06018">
        <ele>1718</ele>
        <time>2009-07-17T23:44:54Z</time>
      </trkpt>
      <trkpt lat="45.11703" lon="6.06018">
        <ele>1716</ele>
        <time>2009-07-17T23:44:54Z</time>
      </trkpt>
      <trkpt lat="45.11703" lon="6.06012">
        <ele>1714</ele>
        <time>2009-07-17T23:44:54Z</time>
      </trkpt>
      <trkpt lat="45.11714" lon="6.06003">
        <ele>1711</ele>
        <time>2009-07-17T23:44:54Z</time>
      </trkpt>
      <trkpt lat="45.11722" lon="6.06008">
        <ele>1708</ele>
        <time>2009-07-17T23:44:54Z</time>
      </trkpt>
      <trkpt lat="45.1172" lon="6.05999">
        <ele>1707</ele>
        <time>2009-07-17T23:44:54Z</time>
      </trkpt>
      <trkpt lat="45.11722" lon="6.05993">
        <ele>1706</ele>
        <time>2009-07-17T23:44:54Z</time>
      </trkpt>
      <trkpt lat="45.1175" lon="6.05999">
        <ele>1698</ele>
        <time>2009-07-17T23:44:54Z</time>
      </trkpt>
      <trkpt lat="45.11755" lon="6.05995">
        <ele>1698</ele>
        <time>2009-07-17T23:44:54Z</time>
      </trkpt>
      <trkpt lat="45.11755" lon="6.06005">
        <ele>1696</ele>
        <time>2009-07-17T23:44:54Z</time>
      </trkpt>
      <trkpt lat="45.11759" lon="6.05995">
        <ele>1693</ele>
        <time>2009-07-17T23:44:54Z</time>
      </trkpt>
      <trkpt lat="45.11765" lon="6.05986">
        <ele>1690</ele>
        <time>2009-07-17T23:44:54Z</time>
      </trkpt>
      <trkpt lat="45.1177" lon="6.05958">
        <ele>1681</ele>
        <time>2009-07-17T23:44:54Z</time>
      </trkpt>
      <trkpt lat="45.11772" lon="6.0593">
        <ele>1674</ele>
        <time>2009-07-17T23:44:54Z</time>
      </trkpt>
      <trkpt lat="45.11765" lon="6.05913">
        <ele>1671</ele>
        <time>2009-07-17T23:44:54Z</time>
      </trkpt>
      <trkpt lat="45.11767" lon="6.05909">
        <ele>1669</ele>
        <time>2009-07-17T23:44:54Z</time>
      </trkpt>
      <trkpt lat="45.1177" lon="6.05887">
        <ele>1666</ele>
        <time>2009-07-17T23:44:54Z</time>
      </trkpt>
      <trkpt lat="45.11755" lon="6.05864">
        <ele>1659</ele>
        <time>2009-07-17T23:44:54Z</time>
      </trkpt>
      <trkpt lat="45.11742" lon="6.05855">
        <ele>1656</ele>
        <time>2009-07-17T23:44:54Z</time>
      </trkpt>
      <trkpt lat="45.11755" lon="6.05847">
        <ele>1654</ele>
        <time>2009-07-17T23:44:54Z</time>
      </trkpt>
      <trkpt lat="45.11765" lon="6.05829">
        <ele>1649</ele>
        <time>2009-07-17T23:44:54Z</time>
      </trkpt>
      <trkpt lat="45.11774" lon="6.0581">
        <ele>1643</ele>
        <time>2009-07-17T23:44:54Z</time>
      </trkpt>
      <trkpt lat="45.11785" lon="6.05812">
        <ele>1641</ele>
        <time>2009-07-17T23:44:54Z</time>
      </trkpt>
      <trkpt lat="45.11767" lon="6.05799">
        <ele>1636</ele>
        <time>2009-07-17T23:44:54Z</time>
      </trkpt>
      <trkpt lat="45.1178" lon="6.05787">
        <ele>1633</ele>
        <time>2009-07-17T23:44:54Z</time>
      </trkpt>
      <trkpt lat="45.11782" lon="6.05774">
        <ele>1631</ele>
        <time>2009-07-17T23:44:54Z</time>
      </trkpt>
      <trkpt lat="45.11795" lon="6.05772">
        <ele>1627</ele>
        <time>2009-07-17T23:44:54Z</time>
      </trkpt>
      <trkpt lat="45.1178" lon="6.05737">
        <ele>1619</ele>
        <time>2009-07-17T23:44:54Z</time>
      </trkpt>
      <trkpt lat="45.11825" lon="6.05737">
        <ele>1609</ele>
        <time>2009-07-17T23:44:54Z</time>
      </trkpt>
      <trkpt lat="45.11877" lon="6.05746">
        <ele>1556</ele>
        <time>2009-07-17T23:44:54Z</time>
      </trkpt>
      <trkpt lat="45.11858" lon="6.05718">
        <ele>1593</ele>
        <time>2009-07-17T23:44:54Z</time>
      </trkpt>
      <trkpt lat="45.11851" lon="6.05709">
        <ele>1592</ele>
        <time>2009-07-17T23:44:54Z</time>
      </trkpt>
      <trkpt lat="45.11849" lon="6.05696">
        <ele>1589</ele>
        <time>2009-07-17T23:44:54Z</time>
      </trkpt>
      <trkpt lat="45.11763" lon="6.05566">
        <ele>1556</ele>
        <time>2009-07-17T23:44:54Z</time>
      </trkpt>
      <trkpt lat="45.11752" lon="6.05555">
        <ele>1525</ele>
        <time>2009-07-17T23:44:54Z</time>
      </trkpt>
      <trkpt lat="45.11825" lon="6.05484">
        <ele>1522</ele>
        <time>2009-07-17T23:44:54Z</time>
      </trkpt>
      <trkpt lat="45.11842" lon="6.05525">
        <ele>1521</ele>
        <time>2009-07-17T23:44:54Z</time>
      </trkpt>
      <trkpt lat="45.11847" lon="6.05533">
        <ele>1517</ele>
        <time>2009-07-17T23:44:54Z</time>
      </trkpt>
      <trkpt lat="45.11855" lon="6.05536">
        <ele>1512</ele>
        <time>2009-07-17T23:44:54Z</time>
      </trkpt>
      <trkpt lat="45.11902" lon="6.05606">
        <ele>1495</ele>
        <time>2009-07-17T23:44:54Z</time>
      </trkpt>
      <trkpt lat="45.11978" lon="6.05677">
        <ele>1472</ele>
        <time>2009-07-17T23:44:54Z</time>
      </trkpt>
      <trkpt lat="45.11952" lon="6.05613">
        <ele>1485</ele>
        <time>2009-07-17T23:44:54Z</time>
      </trkpt>
      <trkpt lat="45.11952" lon="6.05574">
        <ele>1478</ele>
        <time>2009-07-17T23:44:54Z</time>
      </trkpt>
      <trkpt lat="45.11937" lon="6.0548">
        <ele>1473</ele>
        <time>2009-07-17T23:44:54Z</time>
      </trkpt>
      <trkpt lat="45.11926" lon="6.05394">
        <ele>1464</ele>
        <time>2009-07-17T23:44:54Z</time>
      </trkpt>
      <trkpt lat="45.11943" lon="6.05458">
        <ele>1460</ele>
        <time>2009-07-17T23:44:54Z</time>
      </trkpt>
      <trkpt lat="45.11943" lon="6.05433">
        <ele>1456</ele>
        <time>2009-07-17T23:44:54Z</time>
      </trkpt>
      <trkpt lat="45.11935" lon="6.05415">
        <ele>1454</ele>
        <time>2009-07-17T23:44:54Z</time>
      </trkpt>
      <trkpt lat="45.11935" lon="6.05402">
        <ele>1453</ele>
        <time>2009-07-17T23:44:54Z</time>
      </trkpt>
      <trkpt lat="45.11939" lon="6.05385">
        <ele>1449</ele>
        <time>2009-07-17T23:44:54Z</time>
      </trkpt>
      <trkpt lat="45.11941" lon="6.05342">
        <ele>1441</ele>
        <time>2009-07-17T23:44:54Z</time>
      </trkpt>
      <trkpt lat="45.11958" lon="6.05317">
        <ele>1433</ele>
        <time>2009-07-17T23:44:54Z</time>
      </trkpt>
      <trkpt lat="45.11978" lon="6.05291">
        <ele>1422</ele>
        <time>2009-07-17T23:44:54Z</time>
      </trkpt>
      <trkpt lat="45.11973" lon="6.05194">
        <ele>1418</ele>
        <time>2009-07-17T23:44:54Z</time>
      </trkpt>
      <trkpt lat="45.11973" lon="6.05177">
        <ele>1416</ele>
        <time>2009-07-17T23:44:54Z</time>
      </trkpt>
      <trkpt lat="45.11986" lon="6.05151">
        <ele>1403</ele>
        <time>2009-07-17T23:44:54Z</time>
      </trkpt>
      <trkpt lat="45.11982" lon="6.05141">
        <ele>1402</ele>
        <time>2009-07-17T23:44:54Z</time>
      </trkpt>
      <trkpt lat="45.11976" lon="6.05139">
        <ele>1400</ele>
        <time>2009-07-17T23:44:54Z</time>
      </trkpt>
      <trkpt lat="45.12025" lon="6.05113">
        <ele>1397</ele>
        <time>2009-07-17T23:44:54Z</time>
      </trkpt>
      <trkpt lat="45.12038" lon="6.05117">
        <ele>1395</ele>
        <time>2009-07-17T23:44:54Z</time>
      </trkpt>
      <trkpt lat="45.12036" lon="6.05164">
        <ele>1391</ele>
        <time>2009-07-17T23:44:54Z</time>
      </trkpt>
      <trkpt lat="45.12029" lon="6.05179">
        <ele>1387</ele>
        <time>2009-07-17T23:44:54Z</time>
      </trkpt>
      <trkpt lat="45.12021" lon="6.05199">
        <ele>1384</ele>
        <time>2009-07-17T23:44:54Z</time>
      </trkpt>
      <trkpt lat="45.12033" lon="6.0525">
        <ele>1375</ele>
        <time>2009-07-17T23:44:54Z</time>
      </trkpt>
      <trkpt lat="45.1204" lon="6.05257">
        <ele>1375</ele>
        <time>2009-07-17T23:44:54Z</time>
      </trkpt>
      <trkpt lat="45.12042" lon="6.05272">
        <ele>1373</ele>
        <time>2009-07-17T23:44:54Z</time>
      </trkpt>
      <trkpt lat="45.12064" lon="6.05299">
        <ele>1365</ele>
        <time>2009-07-17T23:44:54Z</time>
      </trkpt>
      <trkpt lat="45.12074" lon="6.05345">
        <ele>1356</ele>
        <time>2009-07-17T23:44:54Z</time>
      </trkpt>
      <trkpt lat="45.12106" lon="6.05428">
        <ele>1338</ele>
        <time>2009-07-17T23:44:54Z</time>
      </trkpt>
      <trkpt lat="45.12119" lon="6.05441">
        <ele>1331</ele>
        <time>2009-07-17T23:44:54Z</time>
      </trkpt>
      <trkpt lat="45.12212" lon="6.05469">
        <ele>1308</ele>
        <time>2009-07-17T23:44:54Z</time>
      </trkpt>
      <trkpt lat="45.12224" lon="6.05473">
        <ele>1304</ele>
        <time>2009-07-17T23:44:54Z</time>
      </trkpt>
      <trkpt lat="45.12235" lon="6.05497">
        <ele>1299</ele>
        <time>2009-07-17T23:44:54Z</time>
      </trkpt>
      <trkpt lat="45.1225" lon="6.05516">
        <ele>1297</ele>
        <time>2009-07-17T23:44:54Z</time>
      </trkpt>
      <trkpt lat="45.12246" lon="6.05482">
        <ele>1264</ele>
        <time>2009-07-17T23:44:54Z</time>
      </trkpt>
      <trkpt lat="45.12242" lon="6.05463">
        <ele>1261</ele>
        <time>2009-07-17T23:44:54Z</time>
      </trkpt>
      <trkpt lat="45.12224" lon="6.05411">
        <ele>1255</ele>
        <time>2009-07-17T23:44:54Z</time>
      </trkpt>
      <trkpt lat="45.12261" lon="6.0543">
        <ele>1239</ele>
        <time>2009-07-17T23:44:54Z</time>
      </trkpt>
      <trkpt lat="45.123" lon="6.05379">
        <ele>1235</ele>
        <time>2009-07-17T23:44:54Z</time>
      </trkpt>
      <trkpt lat="45.12327" lon="6.05394">
        <ele>1232</ele>
        <time>2009-07-17T23:44:54Z</time>
      </trkpt>
      <trkpt lat="45.12317" lon="6.05392">
        <ele>1229</ele>
        <time>2009-07-17T23:44:54Z</time>
      </trkpt>
      <trkpt lat="45.12315" lon="6.05407">
        <ele>1226</ele>
        <time>2009-07-17T23:44:54Z</time>
      </trkpt>
      <trkpt lat="45.12315" lon="6.0542">
        <ele>1222</ele>
        <time>2009-07-17T23:44:54Z</time>
      </trkpt>
      <trkpt lat="45.12357" lon="6.05467">
        <ele>1211</ele>
        <time>2009-07-17T23:44:54Z</time>
      </trkpt>
      <trkpt lat="45.12355" lon="6.05458">
        <ele>1182</ele>
        <time>2009-07-17T23:44:54Z</time>
      </trkpt>
      <trkpt lat="45.12375" lon="6.054">
        <ele>1182</ele>
        <time>2009-07-17T23:44:54Z</time>
      </trkpt>
      <trkpt lat="45.12383" lon="6.05435">
        <ele>1181</ele>
        <time>2009-07-17T23:44:54Z</time>
      </trkpt>
      <trkpt lat="45.12388" lon="6.05514">
        <ele>1178</ele>
        <time>2009-07-17T23:44:54Z</time>
      </trkpt>
      <trkpt lat="45.1239" lon="6.05645">
        <ele>1178</ele>
        <time>2009-07-17T23:44:54Z</time>
      </trkpt>
      <trkpt lat="45.1243" lon="6.05628">
        <ele>1177</ele>
        <time>2009-07-17T23:44:54Z</time>
      </trkpt>
      <trkpt lat="45.12484" lon="6.0563">
        <ele>1175</ele>
        <time>2009-07-17T23:44:54Z</time>
      </trkpt>
      <trkpt lat="45.12508" lon="6.05617">
        <ele>1175</ele>
        <time>2009-07-17T23:44:54Z</time>
      </trkpt>
      <trkpt lat="45.12527" lon="6.05619">
        <ele>1177</ele>
        <time>2009-07-17T23:44:54Z</time>
      </trkpt>
      <trkpt lat="45.12581" lon="6.05606">
        <ele>1180</ele>
        <time>2009-07-17T23:44:54Z</time>
      </trkpt>
      <trkpt lat="45.12632" lon="6.05623">
        <ele>1185</ele>
        <time>2009-07-17T23:44:54Z</time>
      </trkpt>
      <trkpt lat="45.1266" lon="6.05636">
        <ele>1187</ele>
        <time>2009-07-17T23:44:54Z</time>
      </trkpt>
      <trkpt lat="45.12673" lon="6.05634">
        <ele>1188</ele>
        <time>2009-07-17T23:44:54Z</time>
      </trkpt>
      <trkpt lat="45.12677" lon="6.05613">
        <ele>1178</ele>
        <time>2009-07-17T23:44:54Z</time>
      </trkpt>
      <trkpt lat="45.12656" lon="6.05613">
        <ele>1159</ele>
        <time>2009-07-17T23:44:54Z</time>
      </trkpt>
      <trkpt lat="45.12696" lon="6.05588">
        <ele>1148</ele>
        <time>2009-07-17T23:44:54Z</time>
      </trkpt>
      <trkpt lat="45.12652" lon="6.05583">
        <ele>1144</ele>
        <time>2009-07-17T23:44:54Z</time>
      </trkpt>
      <trkpt lat="45.12675" lon="6.05555">
        <ele>1133</ele>
        <time>2009-07-17T23:44:54Z</time>
      </trkpt>
      <trkpt lat="45.127" lon="6.05541">
        <ele>1126</ele>
        <time>2009-07-17T23:44:54Z</time>
      </trkpt>
      <trkpt lat="45.12689" lon="6.05535">
        <ele>1124</ele>
        <time>2009-07-17T23:44:54Z</time>
      </trkpt>
      <trkpt lat="45.12696" lon="6.05512">
        <ele>1113</ele>
        <time>2009-07-17T23:44:54Z</time>
      </trkpt>
      <trkpt lat="45.12705" lon="6.05504">
        <ele>1108</ele>
        <time>2009-07-17T23:44:54Z</time>
      </trkpt>
      <trkpt lat="45.12714" lon="6.05516">
        <ele>1113</ele>
        <time>2009-07-17T23:44:54Z</time>
      </trkpt>
      <trkpt lat="45.12717" lon="6.055">
        <ele>1105</ele>
        <time>2009-07-17T23:44:54Z</time>
      </trkpt>
      <trkpt lat="45.12721" lon="6.05486">
        <ele>1099</ele>
        <time>2009-07-17T23:44:54Z</time>
      </trkpt>
      <trkpt lat="45.1274" lon="6.05477">
        <ele>1099</ele>
        <time>2009-07-17T23:44:54Z</time>
      </trkpt>
      <trkpt lat="45.12767" lon="6.05457">
        <ele>1103</ele>
        <time>2009-07-17T23:44:54Z</time>
      </trkpt>
      <trkpt lat="45.12756" lon="6.05446">
        <ele>1095</ele>
        <time>2009-07-17T23:44:54Z</time>
      </trkpt>
      <trkpt lat="45.12766" lon="6.05439">
        <ele>1097</ele>
        <time>2009-07-17T23:44:54Z</time>
      </trkpt>
      <trkpt lat="45.12754" lon="6.05427">
        <ele>1086</ele>
        <time>2009-07-17T23:44:54Z</time>
      </trkpt>
      <trkpt lat="45.12759" lon="6.05415">
        <ele>1083</ele>
        <time>2009-07-17T23:44:54Z</time>
      </trkpt>
      <trkpt lat="45.12736" lon="6.05415">
        <ele>1074</ele>
        <time>2009-07-17T23:44:54Z</time>
      </trkpt>
      <trkpt lat="45.12714" lon="6.05405">
        <ele>1084</ele>
        <time>2009-07-17T23:44:54Z</time>
      </trkpt>
      <trkpt lat="45.12709" lon="6.05375">
        <ele>1077</ele>
        <time>2009-07-17T23:44:54Z</time>
      </trkpt>
      <trkpt lat="45.12696" lon="6.05394">
        <ele>1054</ele>
        <time>2009-07-17T23:44:54Z</time>
      </trkpt>
      <trkpt lat="45.12704" lon="6.05355">
        <ele>1037</ele>
        <time>2009-07-17T23:44:54Z</time>
      </trkpt>
      <trkpt lat="45.12692" lon="6.05379">
        <ele>1045</ele>
        <time>2009-07-17T23:44:54Z</time>
      </trkpt>
      <trkpt lat="45.12698" lon="6.05344">
        <ele>1031</ele>
        <time>2009-07-17T23:44:54Z</time>
      </trkpt>
      <trkpt lat="45.12678" lon="6.05358">
        <ele>1033</ele>
        <time>2009-07-17T23:44:54Z</time>
      </trkpt>
      <trkpt lat="45.12694" lon="6.05322">
        <ele>1020</ele>
        <time>2009-07-17T23:44:54Z</time>
      </trkpt>
      <trkpt lat="45.12664" lon="6.05322">
        <ele>1013</ele>
        <time>2009-07-17T23:44:54Z</time>
      </trkpt>
      <trkpt lat="45.12694" lon="6.05287">
        <ele>1004</ele>
        <time>2009-07-17T23:44:54Z</time>
      </trkpt>
      <trkpt lat="45.12693" lon="6.05263">
        <ele>992</ele>
        <time>2009-07-17T23:44:54Z</time>
      </trkpt>
      <trkpt lat="45.12704" lon="6.05238">
        <ele>981</ele>
        <time>2009-07-17T23:44:54Z</time>
      </trkpt>
      <trkpt lat="45.12694" lon="6.05231">
        <ele>975</ele>
        <time>2009-07-17T23:44:54Z</time>
      </trkpt>
      <trkpt lat="45.12686" lon="6.0522">
        <ele>1024</ele>
        <time>2009-07-17T23:44:54Z</time>
      </trkpt>
      <trkpt lat="45.12692" lon="6.05201">
        <ele>1021</ele>
        <time>2009-07-17T23:44:54Z</time>
      </trkpt>
      <trkpt lat="45.12744" lon="6.05081">
        <ele>974</ele>
        <time>2009-07-17T23:44:54Z</time>
      </trkpt>
      <trkpt lat="45.1272" lon="6.05072">
        <ele>964</ele>
        <time>2009-07-17T23:44:54Z</time>
      </trkpt>
      <trkpt lat="45.12742" lon="6.05036">
        <ele>949</ele>
        <time>2009-07-17T23:44:54Z</time>
      </trkpt>
      <trkpt lat="45.12757" lon="6.05008">
        <ele>937</ele>
        <time>2009-07-17T23:44:54Z</time>
      </trkpt>
      <trkpt lat="45.12761" lon="6.04982">
        <ele>929</ele>
        <time>2009-07-17T23:44:54Z</time>
      </trkpt>
      <trkpt lat="45.12776" lon="6.04948">
        <ele>907</ele>
        <time>2009-07-17T23:44:54Z</time>
      </trkpt>
      <trkpt lat="45.12802" lon="6.04909">
        <ele>893</ele>
        <time>2009-07-17T23:44:54Z</time>
      </trkpt>
      <trkpt lat="45.128" lon="6.04885">
        <ele>893</ele>
        <time>2009-07-17T23:44:54Z</time>
      </trkpt>
      <trkpt lat="45.12793" lon="6.04784">
        <ele>889</ele>
        <time>2009-07-17T23:44:54Z</time>
      </trkpt>
      <trkpt lat="45.12791" lon="6.04767">
        <ele>888</ele>
        <time>2009-07-17T23:44:54Z</time>
      </trkpt>
      <trkpt lat="45.12765" lon="6.04733">
        <ele>887</ele>
        <time>2009-07-17T23:44:54Z</time>
      </trkpt>
      <trkpt lat="45.12806" lon="6.04731">
        <ele>888</ele>
        <time>2009-07-17T23:44:54Z</time>
      </trkpt>
      <trkpt lat="45.12754" lon="6.04645">
        <ele>886</ele>
        <time>2009-07-17T23:44:54Z</time>
      </trkpt>
      <trkpt lat="45.12656" lon="6.04491">
        <ele>886</ele>
        <time>2009-07-17T23:44:54Z</time>
      </trkpt>
      <trkpt lat="45.12621" lon="6.04418">
        <ele>883</ele>
        <time>2009-07-17T23:44:54Z</time>
      </trkpt>
      <trkpt lat="45.12606" lon="6.04379">
        <ele>880</ele>
        <time>2009-07-17T23:44:54Z</time>
      </trkpt>
      <trkpt lat="45.12572" lon="6.04357">
        <ele>880</ele>
        <time>2009-07-17T23:44:54Z</time>
      </trkpt>
      <trkpt lat="45.12574" lon="6.0431">
        <ele>879</ele>
        <time>2009-07-17T23:44:54Z</time>
      </trkpt>
      <trkpt lat="45.12536" lon="6.04169">
        <ele>875</ele>
        <time>2009-07-17T23:44:54Z</time>
      </trkpt>
      <trkpt lat="45.12512" lon="6.04076">
        <ele>873</ele>
        <time>2009-07-17T23:44:54Z</time>
      </trkpt>
      <trkpt lat="45.12439" lon="6.03868">
        <ele>869</ele>
        <time>2009-07-17T23:44:54Z</time>
      </trkpt>
      <trkpt lat="45.12435" lon="6.03843">
        <ele>867</ele>
        <time>2009-07-17T23:44:54Z</time>
      </trkpt>
      <trkpt lat="45.12368" lon="6.03707">
        <ele>857</ele>
        <time>2009-07-17T23:44:54Z</time>
      </trkpt>
      <trkpt lat="45.12353" lon="6.03686">
        <ele>855</ele>
        <time>2009-07-17T23:44:54Z</time>
      </trkpt>
      <trkpt lat="45.12323" lon="6.0363">
        <ele>852</ele>
        <time>2009-07-17T23:44:54Z</time>
      </trkpt>
      <trkpt lat="45.12237" lon="6.03463">
        <ele>845</ele>
        <time>2009-07-17T23:44:54Z</time>
      </trkpt>
      <trkpt lat="45.12272" lon="6.03493">
        <ele>837</ele>
        <time>2009-07-17T23:44:54Z</time>
      </trkpt>
      <trkpt lat="45.12278" lon="6.03508">
        <ele>836</ele>
        <time>2009-07-17T23:44:54Z</time>
      </trkpt>
      <trkpt lat="45.12317" lon="6.0354">
        <ele>826</ele>
        <time>2009-07-17T23:44:54Z</time>
      </trkpt>
      <trkpt lat="45.12364" lon="6.03585">
        <ele>818</ele>
        <time>2009-07-17T23:44:54Z</time>
      </trkpt>
      <trkpt lat="45.12493" lon="6.03669">
        <ele>790</ele>
        <time>2009-07-17T23:44:54Z</time>
      </trkpt>
      <trkpt lat="45.12531" lon="6.03649">
        <ele>789</ele>
        <time>2009-07-17T23:44:54Z</time>
      </trkpt>
      <trkpt lat="45.12561" lon="6.03797">
        <ele>789</ele>
        <time>2009-07-17T23:44:54Z</time>
      </trkpt>
      <trkpt lat="45.12585" lon="6.03851">
        <ele>789</ele>
        <time>2009-07-17T23:44:54Z</time>
      </trkpt>
      <trkpt lat="45.12656" lon="6.04079">
        <ele>789</ele>
        <time>2009-07-17T23:44:54Z</time>
      </trkpt>
      <trkpt lat="45.12714" lon="6.04184">
        <ele>787</ele>
        <time>2009-07-17T23:44:54Z</time>
      </trkpt>
      <trkpt lat="45.12784" lon="6.043">
        <ele>787</ele>
        <time>2009-07-17T23:44:54Z</time>
      </trkpt>
      <trkpt lat="45.12905" lon="6.04147">
        <ele>787</ele>
        <time>2009-07-17T23:44:54Z</time>
      </trkpt>
      <trkpt lat="45.12898" lon="6.04111">
        <ele>786</ele>
        <time>2009-07-17T23:44:54Z</time>
      </trkpt>
      <trkpt lat="45.12847" lon="6.03973">
        <ele>771</ele>
        <time>2009-07-17T23:44:54Z</time>
      </trkpt>
    </trkseg>
  </trk>
</gpx>